     2              OBSERVATION DATA    GPS                 RINEX VERSION / TYPE
teqc 1997Sep28 Simon McClusky 98/06/22                      PGM / RUN BY / DATE
                                                            COMMENT
BIT 2 OF LLI FLAGS DATA COLLECTED UNDER A-S CONDITION       COMMENT
BIT 2 OF LLI FLAGS DATA COLLECTED UNDER A-S CONDITION       COMMENT
Original Marker Name: GS09                                  COMMENT
Campaign Name: China Lake May 1998                          COMMENT
4-Character Station Name: GS09                              COMMENT
6-Character Antenna Code: ASHGD3                            COMMENT
Vertical Measurement Point: TGP                             COMMENT
Vertical Offset to Rinex Ref. Point: 0.0640                 COMMENT
Radial Measurement Point: RRP                               COMMENT
Radial Offset to Rinex Ref. Point: 0.0000                   COMMENT
Antenna Height from Field Measurement: 0.2250 m             COMMENT
Additional Antenna Identification Info.:                    COMMENT
The Whopper (700718AB)                                      COMMENT
Original XYZ: -2443859.4000 -4616464.7200 3648635.7500      COMMENT
New XYZ position is based on association with SCEC monument COMMENT
E1F2Q3B6+0011. Position of that monument is believed to be  COMMENT
valid to within 1 m horizontally; vertical accuracy         COMMENT
should be no worse than 3-times this value.                 COMMENT
                                                            COMMENT
Revised Rinex header created by UCSD GPS archive for        COMMENT
GSAC on 31-Jul-2000 (2000:213) 22:40:07 GMT                 COMMENT
For assistance contact dagnew@ucsd.edu                      COMMENT
or anderson@python.ucsd.edu                                 COMMENT
                                                            COMMENT
BLM CA 065-94-66 GO09                                       MARKER NAME
DRK US NATIONAL IMAGERY MAPPING AGENCY                      OBSERVER / AGENCY
434 ASHTECH Z-XII3 1G00                                     REC # / TYPE / VERS
103 ASHTECH GEODETIC III                                    ANT # / TYPE
 -2444121.1492 -4616592.8130  3648770.5806                  APPROX POSITION XYZ
        0.1610        0.0000        0.0000                  ANTENNA: DELTA H/E/N
     1     1     0                                          WAVELENGTH FACT L1/2
     5    L1    L2    C1    P2    P1                        # / TYPES OF OBSERV
    30                                                      INTERVAL
  1998     4    15    15    20   30.000000                  TIME OF FIRST OBS
  1998     4    15    21    29   60.000000                  TIME OF LAST OBS
                                                            END OF HEADER
 98  4 15 15 20 30.0000000  0  8G19G 2G18G31G27G 7G10G13
      4388.01357                  17003297.205    17003306.532
    -28188.39957                  17875807.273
  17875817.137
     32399.60756                  19109052.411    19109061.745
     17959.94857                  18618940.704
  18618950.330      -20102.20957  16741527.352
  16741536.193                    19622553.935    20401155.422
     -7295.15457                  16517434.235    16517442.240
 98  4 15 15 21  0.0000000  0  8G19G 2G18G31G27G 7G10G13
     20517.96549     13707.43747  17005572.895    17005582.458    17005574.931
   -100349.79549    -70157.64847  17865557.874
  17865567.844                    17865559.814
    146923.62849    100433.56746  19125664.749    19125676.859    19125667.494
     82892.82549     55864.54547  18628198.103    18628207.167    18628199.244
    -92783.80649    -62153.81247  16731257.733    16731266.895    16731259.819
  19599112.680       38612.93646  20406822.201    20406831.943
    -34662.72749    -22310.50347  16513767.458    16513775.470    16513769.352
 98  4 15 15 21 30.0000000  0  8G19G 2G18G31G27G 7G10G13
     32742.20449     23232.77647  20905200.345    20905210.634    20905203.075
   -153984.46549   -111950.89547  21752654.728    21752663.454    21752655.484
    234364.59949    168569.28346  23039606.149    23039618.407    23039609.032
    131953.79749     94093.80147  22534838.619    22534845.210    22534837.438
   -146532.47449   -104035.90547  20618331.852    20618340.963    20618333.843
   -333158.98049   -237631.95146  23473001.672    23473013.919    23473002.728
     92640.18349     62019.46646  24309838.230    24309849.889    24309838.941
    -53407.07049    -36916.51247  20407501.535    20407510.515    20407504.381
 98  4 15 15 22  0.0000000  0  8G19G 2G18G31G27G 7G10G13
     45312.02059     33027.39757  20907593.176    20907602.595    20907595.046
   -207382.85459   -153560.02157  21742493.344    21742502.080    21742494.165
    322071.86459    236912.48656  23056299.356    23056308.615    23056299.228
    181543.65059    132735.18757  22544273.610    22544281.913    22544274.066
   -200054.34259   -145741.27057  20608146.492    20608156.150    20608148.964
   -456082.24659   -333416.22656  23449609.993    23449622.369    23449611.825
    123047.25149     85713.21646  24315623.658    24315636.042    24315625.335
    -71578.20159    -51075.85857  20404045.368    20404052.688    20404046.574
 98  4 15 15 22 30.0000000  0  8G19G 2G18G31G27G 7G10G13
     58257.63749     43114.85347  20910056.726    20910066.117    20910058.541
   -260467.06349   -194924.33547  21732391.472    21732400.547    21732392.613
    410051.35949    305467.83246  23073040.576    23073050.608    23073041.257
    231699.82549    171817.85547  22553817.704    22553826.380    22553818.502
   -253279.45349   -187215.39047  20598018.282    20598027.724    20598020.507
   -578781.33749   -429025.81646  23426261.048    23426273.509    23426262.932
    153838.98649    109706.70846  24321482.837    24321495.528    24321484.821
    -89099.47749    -64728.82447  20400710.865    20400718.542    20400712.432
 98  4 15 15 23  0.0000000  0  8G19G 2G18G31G27G 7G10G13
     71605.79649     53515.97547  20912596.872    20912606.260    20912598.695
   -313201.08249   -236015.77547  21722356.272    21722365.667    21722357.652
    498320.46449    374248.84146  23089836.764    23089847.706    23089838.360
    282451.77549    211364.76947  22563475.131    22563484.197    22563476.328
   -306163.67749   -228423.89047  20587954.970    20587964.163    20587956.977
   -701235.10449   -524444.24346  23402958.708    23402971.300    23402960.769
    185037.00049    134016.78146  24327419.563    24327432.206    24327421.659
   -105938.15049    -77849.88847  20397506.276    20397514.291    20397508.188
 98  4 15 15 23 30.0000000  0  8G19G 2G18G31G27G 7G10G13
     85379.50449     64248.69747  20915218.016    20915227.395    20915219.841
   -365578.54949   -276829.38647  21712389.032    21712398.580    21712390.554
    586891.03149    443264.74846  23106691.140    23106702.190    23106692.846
    333812.95649    251386.39747  22573248.738    22573257.982    22573250.071
   -358670.28649   -269338.14647  20577963.391    20577972.511    20577965.315
   -823430.49849   -619661.34546  23379705.888    23379718.310    23379707.740
    216655.82549    158654.76046  24333436.756    24333449.067    24333438.638
   -122075.45149    -90424.43647  20394435.318    20394443.508    20394437.419
 98  4 15 15 24  0.0000000  0  8G19G 2G18G31G27G 7G10G13
     99593.35249     75324.38847  20917922.965    20917932.257    20917924.756
   -417566.29049   -317339.30847  21702496.103    21702505.675    21702497.658
    675792.46249    512538.47546  23123608.547    23123619.603    23123610.318
    385820.70749    291911.85647  22583145.301    22583154.773    22583146.874
   -410750.06849   -309919.80647  20568052.960    20568062.118    20568054.900
   -945342.33949   -714657.49746  23356507.079    23356519.212    23356508.620
    248722.11549    183641.41145  24339539.144    24339551.167    24339540.742
   -137471.92349   -102421.71347  20391505.496    20391513.696    20391507.614
 98  4 15 15 24 30.0000000  0  9G19G 2G18G31G27G26G 7G10G13
    114266.86749     86758.25747  20920715.264    20920724.591    20920717.097
   -469135.81949   -357523.34847  21692682.731    21692692.335    21692684.297
    765046.99649    582087.36046  23140593.106    23140604.282    23140594.988
    438491.31949    332953.82347  22593168.247    22593177.733    22593169.864
   -462356.97049   -350132.99447  20558232.536    20558241.665    20558234.437
   -297005.73555                  25313816.657    25313829.347
  -1066971.32949   -809433.25146  23333361.714    23333373.953    23333363.356
    281266.95149    209000.95345  24345732.577    24345744.390    24345733.916
   -152107.31549   -113825.94147  20388720.462    20388728.710    20388722.643
 98  4 15 15 25  0.0000000  0  9G19G 2G18G31G27G26G 7G10G13
    129432.75049     98575.79247  20923601.197    20923610.583    20923603.112
   -520272.98649   -397370.48147  21682951.581    21682961.295    21682953.227
    854667.39249    651921.31346  23157647.313    23157658.553    23157649.349
    491825.87849    374513.15547  22603317.597    22603327.027    22603319.180
   -513465.98349   -389958.21347  20548506.895    20548515.984    20548508.731
   -528817.93349   -387127.19555  25291808.546    25291820.175    25291809.191
  -1188305.40949   -903979.21146  23310272.803    23310284.807    23310274.264
    314325.05949    234760.45346  24352023.585    24352035.265    24352024.780
   -165984.89549   -124639.66547  20386079.627    20386087.931    20386081.883
 98  4 15 15 25 30.0000000  0  9G19G 2G18G31G27G26G 7G10G13
    145123.54449    110802.34547  20926587.107    20926596.497    20926588.989
   -570963.21949   -436869.35947  21673305.505    21673315.293    21673307.219
    944681.10749    722061.76446  23174776.545    23174787.701    23174778.510
    545837.37649    416599.96747  22613595.573    22613605.125    22613597.316
   -564064.47449   -429385.62347  20538878.361    20538887.414    20538880.182
   -644111.24759   -476966.18445  25269867.657    25269879.903    25269871.388
  -1309325.47149   -998280.48146  23287243.318    23287255.409    23287244.856
    347923.61249    260941.08046  24358417.401    24358429.177    24358418.494
   -179080.06149   -134843.71747  20383587.761    20383596.042    20383590.044
 98  4 15 15 26  0.0000000  0  9G19G 2G18G31G27G26G 7G10G13
    161353.78949    123449.25647  20929675.608    20929685.071    20929677.536
   -621181.27149   -476000.30547  21663749.395    21663759.145    21663751.064
   1035099.78249    792517.76146  23191982.808    23191993.967    23191984.706
    600538.00449    459223.76347  22624004.804    22624014.408    22624006.607
   -614146.37849   -468410.49947  20529348.147    20529357.189    20529349.974
   -759016.82849   -566503.06945  25248001.834    25248014.178    25248005.061
  -1429994.75349  -1092308.42146  23264280.376    23264292.775    23264282.200
    382086.13549    287561.15746  24364918.497    24364930.339    24364919.418
   -191366.18949   -144417.34847  20381249.871    20381258.099    20381252.158
 98  4 15 15 26 30.0000000  0  9G19G 2G18G31G27G26G 7G10G13
    178143.46749    136532.08847  20932870.648    20932880.135    20932872.603
   -670931.05549   -514766.36747  21654282.218    21654292.066    21654284.005
   1125925.46549    863290.89846  23209266.270    23209277.681    23209268.346
    655916.34449    502375.64847  22634542.945    22634552.682    22634544.869
   -663718.58049   -507038.20347  20519914.904    20519923.953    20519916.758
   -873547.94549   -655748.17445  25226206.948    25226219.633    25226210.594
  -1550298.69349  -1186051.68546  23241387.297    23241399.658    23241389.055
    416805.26349    314614.95646  24371524.961    24371537.346    24371526.272
   -202842.03049   -153359.59147  20379066.247    20379074.314    20379068.450
 98  4 15 15 27  0.0000000  0  9G19G 2G18G31G27G26G 7G10G13
    195493.74449    150051.74647  20936172.435    20936181.895    20936174.366
   -720217.90849   -553171.70747  21644903.282    21644913.124    21644905.024
   1217154.21149    934378.11146  23226626.598    23226638.039    23226628.663
    711965.95249    546050.59847  22645209.004    22645218.671    22645210.847
   -712802.64149   -545285.53547  20510574.509    20510583.599    20510576.389
   -987711.14749   -744706.56545  25204482.623    25204495.213    25204485.936
  -1670221.17149  -1279497.70946  23218566.601    23218579.185    23218568.550
    452066.90849    342091.50346  24378234.570    24378247.584    24378236.379
   -213495.32749   -161660.88647  20377039.041    20377047.092    20377041.259
 98  4 15 15 27 30.0000000  0  9G19G 2G18G31G27G26G 7G10G13
    213378.55049    163987.91947  20939575.793    20939585.306    20939577.801
   -769058.32649   -591229.17547  21635609.192    21635619.109    21635611.042
   1308768.93749   1005766.08746  23244060.189    23244071.847    23244062.439
    768673.79749    590238.46246  22656000.315    22656009.899    22656002.022
   -761424.16049   -583172.44147  20501322.197    20501331.262    20501324.069
  -1101504.54849   -833376.80845  25182828.276    25182841.141    25182831.705
  -1789755.66649  -1372641.41046  23195819.932    23195832.468    23195821.842
    487842.53949    369968.55546  24385042.453    24385055.580    24385044.274
   -223323.78549   -169319.45147  20375168.710    20375176.812    20375170.986
 98  4 15 15 28  0.0000000  0  9G19G 2G18G31G27G26G 7G10G13
    231792.84149    178336.68047  20943079.895    20943089.469    20943081.959
   -817438.86649   -628928.28647  21626402.840    21626412.598    21626404.602
   1400773.71349   1077457.98746  23261568.177    23261579.934    23261570.446
    826041.10349    634940.18946  22666917.070    22666926.653    22666918.701
   -809576.79949   -620693.99047  20492159.096    20492168.129    20492160.956
  -1214909.63549   -921744.43645  25161248.147    25161260.928    25161251.647
  -1908890.31849  -1465473.54246  23173149.268    23173161.887    23173151.220
    524122.34349    398238.46145  24391946.507    24391959.456    24391948.159
   -232323.53449   -176332.26747  20373456.111    20373464.257    20373458.415
 98  4 15 15 28 30.0000000  0  9G19G 2G18G31G27G26G 7G10G13
    250717.33049    193082.99747  20946681.151    20946690.738    20946683.186
   -865378.39649   -666283.76147  21617280.445    21617290.005    21617282.024
   1493161.09849   1149448.02546  23279149.220    23279160.839    23279151.310
    884061.68349    680150.95646  22677957.916    22677967.691    22677959.647
   -857262.10649   -657851.38647  20483084.833    20483093.943    20483086.755
  -1327939.79849  -1009819.93645  25139739.316    25139751.981    25139742.797
  -2027644.01949  -1558008.83446  23150551.231    23150563.793    23150553.143
    560878.78549    426879.75845  24398941.378    24398953.958    24398942.791
   -240513.24949   -182713.89247  20371897.637    20371905.810    20371900.023
 98  4 15 15 29  0.0000000  0  9G19G 2G18G31G27G26G 7G10G13
    270117.09849    208199.66347  20950372.856    20950382.461    20950374.884
   -912901.07549   -703314.42147  21608237.180    21608246.733    21608238.761
   1585896.14649   1221708.95846  23296796.284    23296807.893    23296798.278
    942719.15149    725858.00146  22689120.213    22689129.907    22689121.843
   -904497.52949   -694658.22147  20474096.230    20474105.374    20474098.185
  -1440609.00949  -1097614.18445  25118299.498    25118311.770    25118302.786
  -2146033.58849  -1650260.38946  23128022.426    23128034.986    23128024.358
    598090.53549    455875.86245  24406022.711    24406035.133    24406024.069
   -247921.31749   -188486.43847  20370487.906    20370496.142    20370490.320
 98  4 15 15 29 30.0000000  0  9G19G 2G18G31G27G26G 7G10G13
    289978.82549    223676.29947  20954152.427    20954162.082    20954154.483
   -960014.20049   -740025.93547  21599271.813    21599281.398    21599273.440
   1678962.43949   1294228.02146  23314506.318    23314517.934    23314508.357
   1001993.32649    772045.59546  22700399.793    22700409.494    22700401.396
   -951287.80249   -731118.17847  20465192.316    20465201.490    20465194.310
  -1552921.57349  -1185130.50845  25096927.238    25096939.398    25096930.550
  -2264066.16349  -1742233.76646  23105561.622    23105574.001    23105563.443
    635744.86349    485216.82445  24413188.539    24413200.572    24413189.567
   -254585.86249   -193679.61447  20369219.671    20369227.934    20369222.138
 98  4 15 15 30  0.0000000  0  9G19G 2G18G31G27G26G 7G10G13
    310283.88249    239498.38347  20958016.388    20958026.067    20958018.474
  -1006741.44449   -776436.76847  21590379.923    21590389.525    21590381.587
   1772344.76349   1366993.33146  23332276.556    23332288.171    23332278.547
   1061862.69049    818696.97646  22711792.532    22711802.354    22711794.234
   -997642.50949   -767238.73747  20456371.309    20456380.501    20456373.298
  -1664904.56949  -1272390.00945  25075617.229    25075629.997    25075620.944
  -2381775.34749  -1833955.15546  23083162.402    23083174.630    23083164.086
    673823.21349    514888.19645  24420434.635    24420446.648    24420435.718
   -260538.63949   -198318.16947  20368086.914    20368095.160    20368089.385
 98  4 15 15 30 30.0000000  0  9G19G 2G18G31G27G26G 7G10G13
    331035.89249    255668.74347  20961965.319    20961975.058    20961967.471
  -1053104.00649   -812563.43747  21581557.497    21581567.094    21581559.107
   1866023.72349   1439989.78746  23350103.208    23350114.861    23350105.264
   1122306.49049    865795.96246  22723294.524    22723304.491    22723296.379
  -1043568.42149   -803025.17647  20447631.905    20447641.126    20447633.929
  -1776569.40949  -1359401.61145  25054367.914    25054380.950    25054372.001
  -2499179.03749  -1925438.50146  23060821.049    23060833.487    23060822.910
    712309.96649    544877.80745  24427758.344    24427770.442    24427759.653
   -265800.98249   -202418.72647  20367085.495    20367093.792    20367088.009
 98  4 15 15 31  0.0000000  0 10G19G 2G18G15G31G27G26G 7G10G13
    352243.67949    272194.25147  20966001.111    20966010.827    20966003.240
  -1099104.21349   -848407.75147  21572804.043    21572813.611    21572805.559
   1959983.90549   1513205.37346  23367983.304    23367995.074    23367985.426
  -1986404.12959  -1536304.21455  25097090.313    25097105.067    25097092.223
   1183310.45649    913331.45646  22734903.039    22734913.219    22734905.149
  -1089075.14749   -838484.97347  20438972.329    20438981.501    20438974.285
  -1887914.91449  -1446164.37545  25033179.776    25033192.585    25033183.635
  -2616289.48049  -2016693.33746  23038535.487    23038548.060    23038537.542
    751208.15149    575188.02045  24435160.533    24435172.545    24435161.792
   -270379.98949   -205986.81547  20366214.203    20366222.485    20366216.666
 98  4 15 15 31 30.0000000  0 10G19G 2G18G15G31G27G26G 7G10G13
    373916.61649    289082.21147  20970125.399    20970135.106    20970127.529
  -1144731.37449   -883961.38847  21564121.303    21564131.017    21564122.951
   2054232.47449   1586645.66346  23385918.399    23385930.167    23385920.436
  -2075458.45549  -1605697.08545  25080143.817    25080158.617    25080145.746
   1244882.34849    961309.46646  22746620.024    22746630.024    22746621.957
  -1134154.74849   -873611.94947  20430393.984    20430403.119    20430395.945
  -1998933.19349  -1532672.16345  25012053.262    25012066.592    25012057.644
  -2733112.50349  -2107724.21446  23016304.912    23016317.330    23016306.929
    790523.98449    605823.66745  24442641.846    24442654.185    24442643.333
   -274261.13949   -209011.11847  20365475.650    20365483.959    20365478.138
 98  4 15 15 32  0.0000000  0 10G19G 2G18G15G31G27G26G 7G10G13
    396028.14649    306311.93347  20974333.172    20974342.881    20974335.260
  -1190012.10749   -919245.07547  21555504.582    21555514.370    21555506.334
   2148740.29449   1660287.98146  23403902.883    23403914.537    23403904.829
  -2164294.99849  -1674920.17145  25063238.892    25063253.407    25063240.625
   1307015.61849   1009724.93046  22758443.815    22758453.733    22758445.690
  -1178823.40549   -908418.70647  20421893.823    20421902.999    20421895.826
  -2109643.71749  -1618940.11145  24990985.361    24990998.945    24990989.938
  -2849677.92649  -2198554.35346  22994123.402    22994135.612    22994125.257
    830230.11049    636763.44945  24450197.444    24450210.124    24450199.187
   -277444.56149   -211491.73447  20364869.847    20364878.194    20364872.366
 98  4 15 15 32 30.0000000  0 10G19G 2G18G15G31G27G26G 7G10G13
    418557.43549    323867.17647  20978620.334    20978630.145    20978622.445
  -1234950.36249   -954261.89647  21546953.226    21546962.950    21546954.930
   2243471.29249   1734104.19346  23421929.685    23421941.371    23421931.649
  -2252919.87549  -1743978.39545  25046374.198    25046388.642    25046375.833
   1369705.18449   1058573.85546  22770373.510    22770383.230    22770375.181
  -1223094.39449   -942915.59447  20413469.355    20413478.545    20413471.369
  -2220058.82249  -1704977.88345  24969975.436    24969987.820    24969978.771
  -2965984.47449  -2289182.78246  22971991.100    22972003.204    22971992.867
    870317.59749    668000.37445  24457825.757    24457838.635    24457827.648
   -279943.13649   -213438.70647  20364394.433    20364402.751    20364396.922
 98  4 15 15 33  0.0000000  0 10G19G 2G18G15G31G27G26G 7G10G13
    441474.43049    341724.53547  20982981.293    20982991.169    20982983.431
  -1279547.68449   -989013.05347  21538466.669    21538476.421    21538468.355
   2338414.00749   1808085.38246  23439996.827    23440008.570    23439998.773
  -2341336.57549  -1812874.38045  25029548.767    25029563.359    25029550.614
   1432959.28749   1107862.69046  22782410.607    22782420.195    22782412.122
  -1266980.82049   -977112.82147  20405118.034    20405127.281    20405120.076
  -2330198.00049  -1790800.64545  24949017.402    24949029.075    24949020.172
  -3082028.25449  -2379606.44546  22949908.749    22949920.750    22949910.443
    910776.18549    699526.47845  24465524.697    24465537.818    24465526.696
   -281747.57649   -214844.78847  20364051.039    20364059.415    20364053.538
 98  4 15 15 33 30.0000000  0 10G19G 2G18G15G31G27G26G 7G10G13
    464773.53749    359879.64347  20987415.037    20987424.883    20987417.141
  -1323801.26349  -1023496.36547  21530045.432    21530055.273    21530047.163
   2433580.63149   1882241.04246  23458106.611    23458118.313    23458108.432
  -2429532.95849  -1881598.64345  25012765.148    25012779.906    25012767.290
   1496773.26349   1157587.77646  22794553.969    22794563.634    22794555.539
  -1310474.55849  -1011004.06347  20396841.449    20396850.726    20396843.501
  -2440055.87149  -1876404.20045  24928112.648    24928124.000    24928114.966
  -3197791.39349  -2469811.43246  22927879.465    22927891.679    22927881.430
    951591.94249    731330.88845  24473291.530    24473304.954    24473293.647
   -282844.12149   -215699.27147  20363842.283    20363850.769    20363844.860
 98  4 15 15 34  0.0000000  0 10G19G 2G18G15G31G27G26G 7G10G13
    488450.36049    378329.06947  20991920.650    20991930.461    20991922.748
  -1367727.05449  -1057724.24847  21521686.497    21521696.430    21521688.378
   2528972.90349   1956572.53146  23476259.209    23476271.008    23476261.128
  -2517514.95749  -1950155.86845  24996022.634    24996037.572    24996024.667
   1561116.31849   1207725.14846  22806798.114    22806807.794    22806799.686
  -1353585.27849  -1044596.84947  20388637.763    20388647.042    20388639.839
  -2549635.47749  -1961790.93245  24907260.848    24907271.835    24907262.606
  -3313268.03949  -2559793.17846  22905904.919    22905917.128    22905906.956
    992752.85849    763404.25345  24481124.570    24481137.670    24481126.374
   -283247.70349   -216013.78947  20363765.506    20363773.981    20363768.072
 98  4 15 15 34 30.0000000  0 10G19G 2G18G15G31G27G26G 7G10G13
    512523.03849    397086.96247  20996501.594    20996511.384    20996503.709
  -1411331.89049  -1091702.03447  21513388.968    21513398.654    21513390.690
   2624600.88049   2031087.69146  23494456.820    23494468.565    23494458.680
  -2605280.27349  -2018544.28345  24979321.710    24979336.249    24979323.297
   1625962.94049   1258254.90446  22819138.267    22819147.745    22819139.638
  -1396316.41549  -1077893.85247  20380506.397    20380515.586    20380508.419
  -2658948.03549  -2046969.55045  24886458.700    24886470.622    24886461.113
  -3428448.83849  -2649544.39746  22883986.996    22883998.891    22883988.789
   1034249.81249    795739.47245  24489021.593    24489034.444    24489023.081
   -282962.57549   -215791.64247  20363819.841    20363828.296    20363822.361
 98  4 15 15 35  0.0000000  0 10G19G 2G18G15G31G27G26G 7G10G13
    537005.29949    416164.01347  21001160.471    21001170.241    21001162.598
  -1454631.42949  -1125441.93447  21505149.442    21505159.026    21505151.090
   2720479.21949   2105797.94746  23512702.045    23512713.817    23512703.853
  -2692836.55049  -2086769.78745  24962660.210    24962674.794    24962661.971
   1691289.77349   1309158.84646  22831569.502    22831579.108    22831571.010
  -1438669.24949  -1110896.07547  20372446.955    20372456.136    20372448.947
  -2767988.47849  -2131936.13845  24865708.826    24865720.947    24865711.413
  -3543331.25849  -2739063.11346  22862125.481    22862137.439    22862127.328
   1076062.54649    828320.74345  24496978.650    24496991.149    24496979.885
   -281981.47449   -215027.18747  20364006.537    20364015.047    20364009.078
 98  4 15 15 35 30.0000000  0 10G19G 2G18G15G31G27G26G 7G10G13
    561909.33149    435569.70947  21005899.691    21005909.410    21005901.761
  -1497636.90249  -1158952.69347  21496965.702    21496975.391    21496967.402
   2816614.35549   2180708.28346  23530996.118    23531007.846    23530997.836
  -2780182.64149  -2154831.49345  24946038.696    24946053.120    24946040.427
   1757082.34949   1360425.70246  22844089.251    22844099.103    22844090.978
  -1480635.40849  -1143597.00047  20364461.085    20364470.243    20364463.075
  -2876734.77649  -2216673.50345  24845015.177    24845027.343    24845017.521
  -3657907.64649  -2828343.36646  22840322.296    22840334.175    22840324.080
   1118207.25849    861160.71545  24504998.799    24505011.096    24504999.934
   -280321.84249   -213734.00347  20364322.402    20364330.926    20364324.908
 98  4 15 15 36  0.0000000  0 10G19G 2G18G15G31G27G26G 7G10G13
    587246.68249    455313.05547  21010721.317    21010731.035    21010723.368
  -1540336.11949  -1192224.80247  21488840.268    21488850.055    21488841.993
   2912994.83349   2255809.81446  23549337.018    23549348.589    23549338.488
  -2867311.86149  -2222724.26645  24929458.585    24929472.891    24929460.203
   1823362.28049   1412072.31846  22856702.031    22856711.843    22856703.716
  -1522210.79649  -1175993.41947  20356549.529    20356558.731    20356551.547
  -2985188.56749  -2301182.97845  24824377.046    24824389.376    24824379.468
  -3772169.07749  -2917378.19446  22818578.842    22818590.910    22818580.784
   1160719.79749    894287.30445  24513089.251    24513100.989    24513089.972
   -277978.67849   -211908.19547  20364768.248    20364776.878    20364770.825
 98  4 15 15 36 30.0000000  0 10G19G 2G18G15G31G27G26G 7G10G13
    613004.35249    475383.92047  21015622.778    21015632.650    21015624.925
  -1582724.18249  -1225254.46047  21480774.044    21480783.889    21480775.825
   3009606.28249   2331091.30746  23567721.523    23567733.258    23567723.106
  -2954226.49849  -2290449.76345  24912918.977    24912933.470    24912920.855
   1890145.75149   1464111.30546  22869410.571    22869420.435    22869412.277
  -1563396.80149  -1208086.42447  20348712.124    20348721.322    20348714.144
  -3093358.46649  -2385471.23945  24803792.769    24803805.299    24803795.463
  -3886115.19949  -3006167.33346  22796895.614    22796907.622    22796897.541
   1203588.89449    927691.72045  24521247.473    24521258.781    24521247.902
   -274946.60549   -209545.57547  20365345.268    20365353.932    20365347.835
 98  4 15 15 36 59.9990000  0 10G19G 2G18G15G31G27G26G 7G10G13
    639169.96049    495772.65847  21020601.986    21020611.865    21020604.102
  -1624789.60649  -1258032.71247  21472769.240    21472779.105    21472771.046
   3106437.68249   2406544.20546  23586147.738    23586159.799    23586149.645
  -3040914.18349  -2357998.49845  24896422.390    24896437.139    24896424.534
   1957446.66249   1516553.48546  22882217.485    22882227.468    22882219.329
  -1604176.69649  -1239862.97847  20340952.041    20340961.177    20340954.001
  -3201218.50349  -2469517.99745  24783267.538    24783280.142    24783270.376
  -3999749.32549  -3094713.35646  22775271.713    22775283.697    22775273.636
   1246832.26449    961387.79445  24529476.452    24529487.761    24529476.869
   -271221.64149   -206643.03547  20366054.108    20366062.826    20366056.700
 98  4 15 15 37 29.9990000  0 10G19G 2G18G15G31G27G26G 7G10G13
    665728.73549    516467.75747  21025656.018    21025665.866    21025658.113
  -1666532.42449  -1290559.57947  21464825.917    21464835.715    21464827.639
   3203466.82249   2482151.17846  23604611.775    23604624.037    23604613.762
  -3127382.16049  -2425376.02645  24879967.836    24879982.620    24879969.872
   2025262.33249   1569396.78546  22895122.552    22895132.449    22895124.299
  -1644565.26349  -1271334.60547  20333266.327    20333275.522    20333268.338
  -3308797.98149  -2553346.17445  24762795.835    24762808.546    24762798.849
  -4113102.61649  -3183040.56146  22753701.334    22753713.233    22753703.191
   1290445.64749    995372.17145  24537775.939    24537787.144    24537776.346
   -266816.60649   -203210.57547  20366892.360    20366901.125    20366894.975
 98  4 15 15 37 59.9990000  0 10G19G 2G18G15G31G27G26G 7G10G13
    692690.35249    537476.75747  21030786.618    21030796.500    21030788.766
  -1707930.80349  -1322818.05247  21456948.023    21456957.918    21456949.780
   3300688.90749   2557908.49546  23623112.904    23623124.915    23623114.584
  -3213617.35249  -2492572.15445  24863557.812    24863572.596    24863559.796
   2093594.87849   1622642.84346  22908125.901    22908135.790    22908127.607
  -1684556.66649  -1302496.75147  20325656.254    20325665.449    20325658.255
  -3416087.55349  -2636948.46045  24742379.803    24742391.906    24742382.331
  -4226171.00249  -3271145.76046  22732185.171    22732197.003    22732186.989
   1334402.70549   1029624.35645  24546141.047    24546152.056    24546141.193
   -261711.95249   -199232.96147  20367863.728    20367872.549    20367866.397
 98  4 15 15 38 29.9990000  0 10G19G 2G18G15G31G27G26G 7G10G13
    720043.47749    558790.83347  21035991.761    21036001.655    21035993.923
  -1749006.01749  -1354824.71447  21449131.646    21449141.604    21449133.431
   3398097.29749   2633810.99346  23641649.155    23641661.308    23641650.950
  -3299624.29149  -2559590.37845  24847191.691    24847205.897    24847193.031
   2162422.26849   1676274.49146  22921223.467    22921233.280    22921225.068
  -1724145.48349  -1333345.18447  20318122.719    20318131.979    20318124.747
  -3523076.63349  -2720316.55245  24722020.834    24722032.651    24722023.063
  -4338971.58249  -3359042.26946  22710719.683    22710731.727    22710721.656
   1378655.38049   1064106.87645  24554561.757    24554573.123    24554562.292
   -255921.08949   -194720.63447  20368965.752    20368974.558    20368968.400
 98  4 15 15 38 59.9990000  0 10G19G 2G18G15G31G27G26G 7G10G13
    747805.51949    580423.54747  21041274.805    21041284.656    21041276.916
  -1789758.72349  -1386580.06647  21441376.735    21441386.619    21441378.475
   3495686.16649   2709854.10946  23660219.776    23660232.009    23660221.630
  -3385393.80649  -2626423.61445  24830870.509    24830884.367    24830871.746
   2231737.98849   1730286.64846  22934413.854    22934423.733    22934415.494
  -1763321.99449  -1363872.34147  20310667.712    20310676.960    20310669.709
  -3629747.35249  -2803436.62045  24701721.340    24701733.917    24701724.495
  -4451507.05649  -3446732.20346  22689304.935    22689316.888    22689306.757
   1423202.12249   1098818.53645  24563038.305    24563050.146    24563039.227
   -249455.62549   -189682.64447  20370196.090    20370204.938    20370198.788
 98  4 15 15 39 29.9990000  0 10G19G 2G18G15G31G27G26G 7G10G13
    775971.04849    602370.66547  21046634.448    21046644.438    21046636.647
  -1830192.30749  -1418086.75947  21433682.462    21433692.330    21433684.240
   3593453.10349   2786035.99646  23678824.351    23678836.580    23678826.238
  -3470932.34949  -2693076.91345  24814592.924    24814606.848    24814594.119
   2301532.59149   1784671.96446  22947695.511    22947705.290    22947697.069
  -1802093.99149  -1394084.29447  20303289.712    20303298.901    20303291.660
  -3736100.80549  -2886309.48045  24681483.232    24681495.488    24681486.202
  -4563764.91249  -3534205.81046  22667942.800    22667954.930    22667944.757
   1468023.62749   1133744.30345  24571567.286    24571579.578    24571568.363
   -242335.97549   -184134.90047  20371550.967    20371559.785    20371553.640
 98  4 15 15 39 59.9990000  0 10G19G 2G18G15G31G27G26G 7G10G13
    804533.01249    624626.69347  21052069.596    21052079.639    21052071.827
  -1870321.11349  -1449355.95847  21426046.178    21426056.072    21426047.979
   3691407.83749   2862364.19946  23697464.705    23697476.974    23697466.525
  -3556237.96149  -2759548.67445  24798360.000    24798373.547    24798361.284
   2371810.06549   1839433.55046  22961068.793    22961078.743    22961070.548
  -1840438.07149  -1423962.80747  20295993.050    20296002.298    20295995.054
  -3842107.58149  -2968912.14645  24661311.784    24661323.013    24661313.792
  -4675736.24049  -3621456.15446  22646635.347    22646647.539    22646637.302
   1513123.84949   1168887.24945  24580149.395    24580162.026    24580150.673
   -234576.03549   -178088.22947  20373027.686    20373036.492    20373030.340
 98  4 15 15 40 29.9990000  0 10G19G 2G18G15G31G27G26G 7G10G13
    833500.45749    647198.68147  21057582.023    21057592.040    21057584.210
  -1910155.80849  -1480395.97947  21418465.901    21418475.815    21418467.722
   3789549.07649   2938837.74646  23716140.364    23716152.756    23716142.325
  -3641303.06748  -2825833.05645  24782172.122    24782186.186    24782173.753
   2442564.28749   1894566.61746  22974533.116    22974542.900    22974534.691
  -1878336.72349  -1453494.23647  20288781.187    20288790.456    20288783.209
  -3947770.25149  -3051246.67945  24641204.239    24641216.087    24641206.792
  -4787412.77449  -3708476.78546  22625383.947    22625396.237    22625385.924
   1558523.45449   1204263.49345  24588788.495    24588801.410    24588789.942
   -226186.50149   -171550.96647  20374624.221    20374632.993    20374626.866
 98  4 15 15 40 59.9990000  0 10G19G 2G18G15G31G27G26G 7G10G13
    862881.11149    670092.65247  21063172.989    21063183.058    21063175.218
  -1949690.70749  -1511202.39147  21410942.744    21410952.621    21410944.508
   3887869.75349   3015451.11346  23734850.272    23734862.732    23734852.275
  -3726124.75449  -2891927.77945  24766030.785    24766045.074    24766032.439
   2513784.10849   1950062.49946  22988085.767    22988095.633    22988087.434
  -1915795.29649  -1482682.74347  20281653.090    20281662.327    20281655.115
  -4053095.59949  -3133318.39245  24621161.678    24621173.359    24621163.851
  -4898772.84449  -3795250.81346  22604192.598    22604205.109    22604194.799
   1604245.52749   1239891.02945  24597489.061    24597502.177    24597490.571
   -217167.38349   -164523.11447  20376340.545    20376349.315    20376343.182
 98  4 15 15 41 29.9990000  0 10G19G 2G18G15G31G27G26G 7G10G13
    892665.07249    693300.88147  21068840.657    21068850.815    21068842.964
  -1988920.36549  -1541770.96147  21403477.610    21403487.448    21403479.362
   3986377.80149   3092210.47846  23753595.557    23753608.298    23753597.862
  -3810704.81549  -2957834.20745  24749935.835    24749949.723    24749937.340
   2585459.34149   2005913.22546  23001724.968    23001735.049    23001726.800
  -1952826.04049  -1511537.87947  20274606.401    20274615.620    20274608.437
  -4158095.47349  -3215136.46745  24601180.517    24601192.499    24601182.959
  -5009804.39349  -3881768.85446  22583063.984    22583076.481    22583066.165
   1650294.39049   1275773.18345  24606251.588    24606265.070    24606253.314
   -207504.38849   -156993.53847  20378179.436    20378188.167    20378182.006
 98  4 15 15 41 59.9990000  0 10G19G 2G18G15G31G27G26G 7G10G13
    922891.72049    716854.07147  21074592.719    21074602.823    21074595.002
  -2027825.65549  -1572086.77247  21396074.208    21396084.000    21396075.926
   4085096.44449   3169133.93646  23772381.221    23772393.996    23772383.484
  -3895012.46349  -3023528.41545  24733892.388    24733906.500    24733894.045
   2657610.30449   2062134.66146  23015454.845    23015464.990    23015456.740
  -1989414.52849  -1540048.39447  20267643.880    20267653.059    20267645.898
  -4262758.29749  -3296691.90045  24581263.226    24581275.637    24581266.246
  -5120487.94649  -3968015.72546  22562001.449    22562014.106    22562003.747
   1696687.98949   1311923.95845  24615079.915    24615093.593    24615081.707
   -197160.45449   -148933.36147  20380147.817    20380156.613    20380150.425
 98  4 15 15 42 29.9990000  0 10G19G 2G18G15G31G27G26G 7G10G13
    953546.56149    740740.91747  21080426.241    21080436.292    21080428.483
  -2066417.13749  -1602158.05547  21388730.499    21388740.285    21388732.221
   4183992.71549   3246195.80646  23791200.836    23791213.539    23791202.960
  -3979063.71549  -3089022.82445  24717897.767    24717911.896    24717899.596
   2730210.02049   2118705.77446  23029269.962    23029280.363    23029272.077
  -2025614.93149  -1568256.50847  20260755.147    20260764.356    20260757.207
  -4367123.63649  -3378015.53245  24561402.957    24561415.656    24561406.120
  -5230835.72949  -4054000.96046  22541003.085    22541015.611    22541005.287
   1743398.43249   1348321.62945  24623969.014    24623982.496    24623970.568
   -186146.93349   -140351.43147  20382243.663    20382252.461    20382246.257
 98  4 15 15 42 59.9990000  0 10G19G 2G18G15G31G27G26G 7G10G13
    984617.80749    764952.23047  21086338.870    21086349.023    21086341.190
  -2104674.63149  -1631969.09147  21381450.386    21381460.167    21381452.094
   4283087.00249   3323411.97346  23810057.917    23810070.663    23810060.117
  -4062851.25849  -3154311.73045  24701953.639    24701967.597    24701955.292
   2803279.10749   2175642.63346  23043174.697    23043185.032    23043176.799
  -2061438.06349  -1596170.64347  20253938.276    20253947.465    20253940.323
  -4471184.71849  -3459102.09645  24541600.562    24541613.608    24541604.026
  -5340840.81749  -4139719.15646  22520069.734    22520082.361    22520072.062
   1790420.38449   1384962.04145  24632917.144    24632930.597    24632918.546
   -174449.32849   -131236.44947  20384469.748    20384478.513    20384472.269
 98  4 15 15 43 29.9990000  0 10G19G 2G18G15G31G27G26G 7G10G13
   1016084.59849    789471.76147  21092326.844    21092337.016    21092329.152
  -2142607.49449  -1661527.17047  21374231.953    21374241.803    21374233.735
   4382381.81049   3400784.39846  23828953.368    23828965.882    23828955.423
  -4146376.40049  -3219396.15345  24686059.138    24686073.070    24686061.079
   2876828.59749   2232953.82046  23057170.873    23057181.201    23057172.891
  -2096887.23649  -1623793.39047  20247192.585    20247201.762    20247194.604
  -4574945.99349  -3539955.03845  24521856.030    24521868.576    24521858.871
  -5450526.76049  -4225188.67646  22499197.229    22499209.795    22499199.549
   1837735.98549   1421831.25145  24641921.481    24641934.442    24641922.421
   -162077.62449   -121596.20147  20386824.068    20386832.829    20386826.570
 98  4 15 15 43 59.9990000  0 10G19G 2G18G15G31G27G26G 7G10G13
   1047940.80149    814294.73347  21098388.961    21098399.120    21098391.237
  -2180232.58849  -1690845.42847  21367072.074    21367081.993    21367073.916
   4481863.32449   3478302.29446  23847884.384    23847896.738    23847886.191
  -4229632.20349  -3284270.66345  24670216.356    24670230.139    24670218.022
   2950859.47449   2290640.11946  23071258.483    23071268.949    23071260.666
  -2131950.15949  -1651115.15947  20240520.302    20240529.521    20240522.351
  -4678395.19349  -3620564.79545  24502170.524    24502182.999    24502173.240
  -5559894.67049  -4310410.37246  22478385.117    22478397.713    22478387.458
   1885344.32749   1458928.57945  24650981.287    24650994.051    24650982.174
   -149039.29849   -111436.50147  20389305.167    20389313.998    20389307.729
 98  4 15 15 44 29.9990000  0 10G19G 2G18G15G31G27G26G 7G10G13
   1080165.87549    839405.13647  21104521.265    21104531.419    21104523.499
  -2217563.88649  -1719934.74947  21359968.127    21359978.050    21359969.992
   4581509.13849   3555948.22445  23866846.313    23866858.858    23866848.345
  -4312625.87849  -3348941.00845  24654423.282    24654436.697    24654424.771
   3025357.88749   2348690.74146  23085435.135    23085445.662    23085437.382
  -2166619.91349  -1678130.56647  20233922.908    20233932.075    20233924.894
  -4781535.60949  -3700933.93245  24482543.580    24482555.899    24482546.404
  -5668951.23949  -4395389.47246  22457632.434    22457644.918    22457634.707
   1933241.68849   1496251.14145  24660096.020    24660108.749    24660096.833
   -135333.88049   -100756.98647  20391913.237    20391922.103    20391915.826
 98  4 15 15 44 59.9990000  0 10G19G 2G18G15G31G27G26G 7G10G13
   1112774.24849    864814.21647  21110726.474    21110736.632    21110728.700
  -2254591.23149  -1748787.22647  21352922.110    21352931.938    21352923.939
   4681334.08249   3633733.72845  23885842.404    23885855.128    23885844.566
  -4395345.34449  -3413397.62645  24638681.957    24638695.702    24638683.677
   3100334.63349   2407114.09446  23099702.867    23099713.314    23099705.044
  -2200861.21049  -1704812.11047  20227407.027    20227416.192    20227409.018
  -4884344.76349  -3781044.94945  24462979.729    24462991.854    24462982.411
  -5777689.21249  -4480120.29946  22436940.416    22436952.743    22436942.569
   1981437.25449   1533806.05045  24669267.147    24669280.163    24669268.233
   -120944.49549    -89544.51147  20394651.488    20394660.356    20394654.078
 98  4 15 15 45 29.9990000  0 10G19G 2G18G15G31G27G26G 7G10G13
   1145766.83549    890522.67547  21117004.717    21117014.984    21117007.026
  -2291332.99449  -1777417.17247  21345930.410    21345940.216    21345932.230
   4781308.07049   3711635.37545  23904867.332    23904879.755    23904869.162
  -4477798.62049  -3477646.80845  24622991.257    24623005.197    24622993.271
   3175766.73649   2465892.25946  23114057.158    23114067.617    23114059.294
  -2234678.21049  -1731163.03447  20220971.891    20220981.065    20220973.895
  -4986829.30249  -3860903.02545  24443477.586    24443489.609    24443480.240
  -5886117.11349  -4564609.52246  22416307.270    22416319.538    22416309.377
   2029911.47049   1571578.09545  24678491.966    24678504.558    24678492.819
   -105883.55149    -77808.74147  20397517.573    20397526.389    20397520.106
 98  4 15 15 45 59.9990000  0 10G19G 2G18G15G31G27G26G 7G10G13
   1179188.46049    916565.45547  21123364.748    21123374.962    21123366.997
  -2327762.00249  -1805803.42147  21338998.212    21339008.073    21339000.009
   4881446.90549   3789665.46445  23923923.323    23923935.726    23923925.035
  -4559961.31849  -3541669.57545  24607356.151    24607370.032    24607358.001
   3251660.85949   2525030.44146  23128499.387    23128509.898    23128501.508
  -2268044.61649  -1757162.84947  20214622.499    20214631.663    20214624.512
  -5088959.45349  -3940484.94545  24424042.856    24424054.976    24424045.508
  -5994210.87849  -4648838.38246  22395737.661    22395749.910    22395739.781
   2078683.34349   1609582.09145  24687773.225    24687785.622    24687773.951
    -90129.36149    -65532.78847  20400515.532    20400524.329    20400518.055
 98  4 15 15 46 29.9990000  0 10G19G 2G18G15G31G27G26G 7G10G13
   1213053.04849    942953.39747  21129808.983    21129819.248    21129811.259
  -2363866.02949  -1833936.43447  21332127.809    21332137.745    21332129.643
   4981752.74349   3867825.69045  23943010.667    23943023.468    23943012.724
  -4641836.44949  -3605468.27645  24591775.811    24591789.643    24591777.405
   3328007.95649   2584521.59646  23143027.980    23143038.346    23143029.911
  -2300962.54349  -1782813.19847  20208358.466    20208367.650    20208360.464
  -5190736.84049  -4019791.99045  24404675.482    24404687.460    24404677.993
  -6101977.50849  -4732812.32846  22375230.144    22375242.555    22375232.403
   2127736.29449   1647805.08645  24697107.665    24697120.166    24697108.631
    -73699.53249    -52730.36647  20403642.046    20403650.865    20403644.587
 98  4 15 15 46 59.9990000  0 10G19G 2G18G15G31G27G26G 7G10G13
   1247347.25449    969676.11047  21136334.983    21136345.276    21136337.289
  -2399654.12749  -1861823.26347  21325317.706    21325327.525    21325319.435
   5082219.89049   3946111.60345  23962128.975    23962141.865    23962131.034
  -4723439.84249  -3669055.24345  24576246.959    24576260.941    24576248.753
   3404782.49949   2644345.81646  23157637.766    23157648.144    23157639.644
  -2333455.61949  -1808132.49447  20202175.243    20202184.461    20202177.255
  -5292168.14949  -4098829.35045  24385373.711    24385385.703    24385376.309
  -6209428.86449  -4816540.60946  22354782.801    22354795.166    22354785.065
   2177040.31249   1686223.71945  24706489.744    24706502.465    24706491.007
    -56634.94549    -39433.33047  20406889.384    20406898.179    20406891.919
 98  4 15 15 47 29.9990000  0 10G19G 2G18G15G31G27G26G 7G10G13
   1282086.43549    996745.55147  21142945.689    21142955.998    21142947.993
  -2435125.70749  -1889463.45247  21318567.703    21318577.536    21318569.454
   5182857.74949   4024530.54945  23981279.724    23981292.694    23981281.954
  -4804754.67449  -3732417.36745  24560773.064    24560787.132    24560775.055
   3481989.82049   2704507.27846  23172329.935    23172340.326    23172331.740
  -2365528.97749  -1833124.72947  20196071.925    20196081.111    20196073.924
  -5393239.07749  -4177585.90045  24366140.473    24366152.534    24366143.173
  -6316546.35849  -4900008.73446  22334398.989    22334411.255    22334401.198
   2226605.63249   1724845.98745  24715921.546    24715934.466    24715923.023
    -38938.48149    -25643.91947  20410256.957    20410265.726    20410259.469
 98  4 15 15 47 59.9990000  0 10G19G 2G18G15G31G27G26G 7G10G13
   1317260.33849   1024153.74347  21149639.120    21149649.431    21149641.440
  -2470293.33349  -1916866.79847  21311875.438    21311885.382    21311877.277
   5283660.39049   4103077.88545  24000461.679    24000474.906    24000464.244
  -4885787.23449  -3795559.52545  24545353.021    24545367.168    24545355.001
   3559612.30449   2764992.23946  23187101.179    23187111.457    23187102.895
  -2397190.31849  -1857795.91447  20190046.950    20190056.177    20190048.964
  -5493942.33049  -4256055.96145  24346977.134    24346989.395    24346980.028
  -6423331.75049  -4983218.07746  22314078.317    22314090.562    22314080.525
   2276432.79349   1763672.27245  24725403.356    24725416.299    24725404.908
    -20625.22449    -11373.88947  20413741.919    20413750.659    20413744.414
 98  4 15 15 48 29.9990000  0 10G19G 2G18G15G31G27G26G 7G10G13
   1352866.80349   1051898.99247  21156414.834    21156425.169    21156417.147
  -2505156.09749  -1944032.59747  21305241.211    21305251.232    21305243.118
   5384636.04649   4181760.05245  24019676.952    24019690.131    24019679.503
  -4966522.63349  -3858470.15245  24529989.367    24530003.601    24529991.443
   3637656.96949   2825806.17346  23201952.337    23201962.989    23201954.362
  -2428442.83849  -1882148.54247  20184099.834    20184109.013    20184101.818
  -5594269.84749  -4334233.22545  24327885.617    24327897.714    24327888.285
  -6529756.16349  -5066146.14246  22293826.458    22293838.613    22293828.614
   2326528.57149   1802707.86645  24734936.306    24734949.250    24734937.823
     -1671.14049      3395.48547  20417348.861    20417357.541    20417351.310
 98  4 15 15 48 59.9990000  0 10G19G 2G18G15G31G27G26G 7G10G13
   1388883.83649   1079964.16647  21163268.666    21163279.033    21163270.991
  -2539733.22649  -1970975.81747  21298661.436    21298671.416    21298663.327
   5485766.46249   4260562.80245  24038921.915    24038934.749    24038924.181
  -5046967.58149  -3921154.40445  24514681.293    24514695.306    24514683.211
   3716121.99049   2886947.65846  23216883.806    23216894.489    23216885.845
  -2459302.09449  -1906194.73047  20178227.569    20178236.714    20178229.527
  -5694238.91549  -4412131.17845  24308862.366    24308874.175    24308864.741
  -6635821.85149  -5148794.68446  22273642.815    22273654.934    22273644.956
   2376884.36249   1841946.07245  24744518.624    24744531.623    24744520.288
     17930.13049     18669.15947  20421078.821    20421087.571    20421081.343
 98  4 15 15 49 29.9990000  0 10G19G 2G18G15G31G27G26G 7G10G13
   1425282.76149   1108326.91547  21170195.210    21170205.561    21170197.501
  -2574041.17149  -1997709.28047  21292132.852    21292142.780    21292134.714
   5587023.97749   4339464.59245  24058191.123    24058203.587    24058193.104
  -5127134.69849  -3983622.19745  24499426.166    24499439.957    24499427.721
   3794991.68449   2948404.46946  23231892.084    23231903.003    23231894.357
  -2489772.98349  -1929938.29447  20172429.176    20172438.307    20172431.140
  -5793870.45149  -4489766.13145  24289902.892    24289914.900    24289905.490
  -6741546.12549  -5231177.18346  22253524.162    22253536.238    22253526.310
   2427490.29049   1881379.16145  24754148.457    24754161.490    24754150.409
     38171.85049     34441.88547  20424930.816    20424939.481    20424933.268
 98  4 15 15 49 59.9990000  0 10G19G 2G18G15G31G27G26G 7G10G13
   1462063.27849   1136987.00047  21177194.366    21177204.714    21177196.649
  -2608059.04849  -2024216.72647  21285659.507    21285669.362    21285661.287
   5688418.53049   4418473.15645  24077486.477    24077498.403    24077488.069
  -5207006.92249  -4045860.19645  24484226.440    24484240.725    24484228.263
   3874267.05149   3010177.38546  23246977.936    23246988.729    23246980.056
  -2519812.57249  -1953345.78347  20166712.865    20166722.013    20166714.815
  -5893152.03049  -4567128.40145  24271010.381    24271022.204    24271012.921
  -6846915.88149  -5313283.43446  22233472.903    22233484.994    22233475.063
   2478354.25349   1921013.35645  24763827.264    24763840.449    24763829.444
     59082.12749     50735.56047  20428909.972    20428918.627    20428912.412
 98  4 15 15 50 29.9990000  0 10G19G 2G18G15G31G27G26G 7G10G13
   1499217.57049   1165938.34147  21184264.678    21184274.981    21184266.943
  -2641785.96049  -2050497.44747  21279241.502    21279251.336    21279243.280
   5789940.02349   4497580.63945  24096805.819    24096817.444    24096807.188
  -5286578.37749  -4107863.86145  24469084.304    24469098.625    24469086.419
   3953950.22049   3072268.07446  23262141.137    23262152.021    23262143.300
  -2549414.43949  -1976412.19647  20161079.778    20161088.979    20161081.749
  -5992102.47349  -4644232.62245  24252180.959    24252192.592    24252183.285
  -6951929.50149  -5395112.18547  22213489.491    22213501.496    22213491.593
   2529464.00649   1960839.04445  24773553.032    24773566.306    24773555.360
     80670.20549     67557.39747  20433018.000    20433026.767    20433020.504
 98  4 15 15 50 59.9990000  0 10G19G 2G18G15G31G27G26G 7G10G13
   1536733.69049   1195171.63147  21191403.901    21191414.120    21191406.067
  -2675218.18849  -2076548.53647  21272879.570    21272889.415    21272881.340
   5891570.83849   4576773.29845  24116145.539    24116157.329    24116147.057
  -5365849.68449  -4169633.67245  24453999.501    24454013.603    24454001.483
   4034044.99449   3134679.48146  23277382.841    23277393.668    23277384.874
  -2578560.86749  -1999123.71347  20155533.374    20155542.612    20155535.370
  -6090719.66049  -4721077.17645  24233414.609    24233426.335    24233417.129
  -7056598.15549  -5476672.12647  22193571.568    22193583.649    22193573.821
   2580814.68749   2000852.50345  24783325.126    24783338.109    24783327.181
    102917.78449     84893.13147  20437251.563    20437260.391    20437254.074
 98  4 15 15 51 29.9990000  0 10G19G 2G18G15G31G27G26G 7G10G13
   1574596.47249   1224675.04047  21198609.027    21198619.188    21198611.154
  -2708374.84649  -2102384.90247  21266570.010    21266579.907    21266571.812
   5993298.65149   4656041.53945  24135503.711    24135515.645    24135505.360
  -5444828.94249  -4231175.87545  24438969.709    24438984.270    24438972.048
   4114517.84949   3197385.50446  23292696.406    23292707.234    23292698.386
  -2607261.98049  -2021488.23547  20150071.727    20150080.968    20150073.749
  -6189005.98949  -4797663.92345  24214711.477    24214722.984    24214713.890
  -7160933.66249  -5557972.47947  22173717.376    22173729.241    22173719.454
   2632400.42449   2041049.11145  24793141.419    24793154.518    24793143.624
    125806.85749    102728.72847  20441607.269    20441616.075    20441609.738
 98  4 15 15 51 59.9990000  0 10G19G 2G18G15G31G27G26G 7G10G13
   1612815.81749   1254456.30047  21205881.893    21205892.141    21205884.125
  -2741269.53749  -2128017.13347  21260310.320    21260320.282    21260312.186
   6095114.18949   4735378.14745  24154878.467    24154890.697    24154880.391
  -5523516.39349  -4292490.73345  24423995.666    24424010.458    24423998.266
   4195371.52149   3260388.25946  23308082.681    23308093.290    23308084.406
  -2635531.46949  -2043516.42447  20144692.259    20144701.473    20144694.291
  -6286968.14249  -4873998.04445  24196069.681    24196081.432    24196072.349
  -7264943.30649  -5639018.90647  22153925.145    22153936.839    22153927.103
   2684207.69249   2081418.34545  24803000.127    24803013.275    24803002.193
    149333.52349    121061.15847  20446084.249    20446093.092    20446086.728
 98  4 15 15 52 29.9990000  0 10G19G 2G18G15G31G27G26G 7G10G13
   1651395.70949   1284518.50047  21213223.411    21213233.702    21213225.679
  -2773907.78949  -2153449.54547  21254099.603    21254109.483    21254101.384
   6197008.26649   4814775.94545  24174268.452    24174280.697    24174270.290
  -5601916.22349  -4353581.46845  24409076.765    24409091.428    24409079.403
   4276628.48449   3323705.26146  23323545.382    23323556.025    23323547.159
  -2663387.18749  -2065222.19147  20139391.597    20139400.717    20139393.564
  -6384606.20449  -4950079.63245  24177489.917    24177501.527    24177492.407
  -7368636.88349  -5719819.05747  22134192.809    22134204.570    22134194.818
   2736226.11449   2121952.10645  24812899.069    24812912.131    24812900.934
    173471.34749    139869.80747  20450677.599    20450686.423    20450680.037
 98  4 15 15 52 59.9990000  0 10G19G 2G18G15G31G27G26G 7G10G13
   1690350.45349   1314872.79347  21220636.276    21220646.622    21220638.551
  -2806276.98149  -2178672.30147  21247939.977    21247949.876    21247941.776
   6298996.63249   4894247.21245  24193676.534    24193688.691    24193678.275
  -5680021.71749  -4414442.82345  24394213.723    24394228.473    24394216.273
   4358290.17849   3387337.65046  23339085.126    23339095.796    23339086.969
  -2690828.45449  -2086605.01247  20134169.663    20134178.875    20134171.640
  -6481894.54649  -5025888.72745  24158976.541    24158988.095    24158979.087
  -7472015.77549  -5800373.99147  22114520.337    22114532.169    22114522.410
   2788469.26649   2162660.98945  24822840.602    24822853.774    24822842.513
    198207.24149    159144.49047  20455384.719    20455393.539    20455387.168
 98  4 15 15 53 29.9990000  0 10G19G 2G18G15G31G27G26G 7G10G13
   1729688.06149   1345525.41547  21228122.008    21228132.391    21228124.290
  -2838375.04049  -2203683.78047  21241831.972    21241841.868    21241833.735
   6401085.12949   4973796.51345  24213103.321    24213115.681    24213105.191
  -5757833.40149  -4475075.27745  24379406.693    24379421.302    24379409.122
   4440347.57649   3451278.37046  23354700.073    23354710.851    23354702.043
  -2717866.06949  -2107673.29647  20129024.545    20129033.840    20129026.556
  -6578830.53049  -5101423.23645  24140530.358    24140541.779    24140532.789
  -7575080.33549  -5880683.99447  22094907.667    22094919.630    22094909.843
   2840920.51749   2203532.02345  24832821.755    24832834.914    24832823.599
    223530.19149    178876.61647  20460203.612    20460212.356    20460206.034
 98  4 15 15 53 59.9990000  0 10G19G 2G18G15G31G27G26G 7G10G13
   1769421.73849   1376486.66947  21235683.209    21235693.522    21235685.401
  -2870188.03949  -2228473.13847  21235778.123    21235788.081    21235779.938
   6503274.73149   5053424.57245  24232549.757    24232561.928    24232551.399
  -5835342.37649  -4535471.80945  24364657.371    24364671.966    24364659.622
   4522816.65849   3515539.87646  23370393.686    23370404.311    23370395.457
  -2744486.64549  -2128416.61847  20123958.904    20123968.170    20123960.901
  -6675400.35149  -5176672.43646  24122153.703    24122165.151    24122156.240
  -7677828.40849  -5960747.38447  22075355.322    22075367.267    22075357.537
   2893563.37549   2244552.35945  24842839.642    24842852.641    24842841.253
    249435.40249    199062.45247  20465133.306    20465141.989    20465135.697
 98  4 15 15 54 29.9990000  0 10G19G 2G18G15G31G27G26G 7G10G13
   1809545.61649   1407751.97447  21243318.473    21243328.902    21243320.756
  -2901723.11949  -2253045.93147  21229777.290    21229787.150    21229779.037
   6605555.94949   5133124.05145  24252013.557    24252025.613    24252015.063
  -5912551.78849  -4595634.90045  24349965.027    24349979.566    24349967.265
   4605669.09549   3580100.10046  23386159.791    23386170.704    23386161.782
  -2770697.86349  -2148840.95247  20118971.140    20118980.341    20118973.118
  -6771591.92549  -5251626.88646  24103849.133    24103860.514    24103851.638
  -7780246.65749  -6040553.77247  22055865.824    22055877.640    22055867.986
   2946391.78349   2285717.27645  24852892.512    24852905.643    24852894.349
    275907.40749    219689.94347  20470170.901    20470179.483    20470173.237
 98  4 15 15 54 59.9990000  0 10G19G 2G18G15G31G27G26G 7G10G13
   1850058.82149   1439320.64747  21251027.964    21251038.379    21251030.204
  -2932986.39749  -2277406.93547  21223828.131    21223837.973    21223829.860
   6707914.12049   5212883.47745  24271491.863    24271503.864    24271493.258
  -5989463.95149  -4655566.39645  24335328.918    24335343.595    24335331.238
   4688864.86249   3644927.85446  23401991.398    23402002.451    23401993.496
  -2796501.56149  -2168947.74947  20114060.878    20114070.075    20114062.845
  -6867413.27549  -5326292.85446  24085614.948    24085626.309    24085617.373
  -7882326.56149  -6120096.51347  22036440.674    22036452.471    22036442.829
   2999398.07649   2327020.81145  24862979.641    24862992.574    24862981.245
    302951.25849    240763.02947  20475317.267    20475325.815    20475319.575
 98  4 15 15 55 29.9990000  0 10G19G 2G18G15G31G27G26G 7G10G13
   1890969.24149   1471198.83447  21258813.024    21258823.444    21258815.251
  -2963987.79649  -2301563.87647  21217928.796    21217938.623    21217930.520
   6810343.71149   5292698.55545  24290983.895    24290995.756    24290985.063
  -6066076.76549  -4715264.62245  24320749.802    24320764.621    24320752.210
   4772399.16349   3710019.39846  23417887.916    23417898.688    23417889.655
  -2821889.83849  -2188730.84147  20109229.625    20109238.826    20109231.599
  -6962881.63249  -5400683.76246  24067447.982    24067459.247    24067450.315
  -7984065.48749  -6199373.55947  22017080.244    22017092.169    22017082.537
   3052570.57549   2368453.84745  24873098.451    24873111.099    24873099.719
    330581.88449    262293.34447  20480575.230    20480583.787    20480577.557
 98  4 15 15 55 59.9990000  0 10G19G 2G18G15G31G27G26G 7G10G13
   1932282.73949   1503391.11547  21266674.774    21266685.212    21266677.021
  -2994730.51449  -2325519.24647  21212078.658    21212088.467    21212080.365
   6912846.34449   5372570.55345  24310489.305    24310501.547    24310490.848
  -6142384.70349  -4774725.31345  24306229.050    24306243.673    24306231.341
   4856267.52549   3775371.24346  23433847.693    23433858.371    23433849.353
  -2846856.98649  -2208185.78147  20104478.590    20104487.773    20104480.548
  -7058000.97549  -5474802.69946  24049347.404    24049358.641    24049349.678
  -8085451.99949  -6278375.99547  21997787.155    21997798.934    21997789.344
   3105928.22049   2410031.16445  24883252.071    24883264.835    24883253.415
    358823.01249    284299.37347  20485949.339    20485957.942    20485951.715
 98  4 15 15 56 29.9990000  0 10G19G 2G18G15G31G27G26G 7G10G13
   1973988.25549   1535888.85947  21274611.077    21274621.573    21274613.352
  -3025221.49849  -2349278.45047  21206276.379    21206286.215    21206278.132
   7015416.99549   5452495.56045  24330008.083    24330020.226    24330009.539
  -6218395.98749  -4833954.80745  24291764.075    24291778.996    24291766.710
   4940457.15849   3840973.44146  23449868.609    23449879.237    23449870.181
  -2871413.72949  -2227320.92247  20099805.583    20099814.828    20099807.596
  -7152781.46449  -5548657.59846  24031311.148    24031322.473    24031313.487
  -8186484.76149  -6357102.78147  21978561.317    21978573.017    21978563.437
   3159469.94849   2451751.92645  24893440.685    24893453.621    24893442.117
    387667.23049    306775.34747  20491438.320    20491446.877    20491440.610
 98  4 15 15 56 59.9990000  0 10G19G 2G18G15G31G27G26G 7G10G13
   2016067.96449   1568678.18447  21282618.673    21282629.148    21282620.938
  -3055452.91749  -2372835.40747  21200523.529    21200533.374    21200525.303
   7118064.90449   5532480.74645  24349541.102    24349553.575    24349542.887
  -6294107.73649  -4892950.89145  24277357.095    24277371.475    24277359.432
   5024978.33749   3906833.96646  23465952.745    23465963.263    23465954.132
  -2895550.01149  -2246128.43547  20095212.717    20095221.879    20095214.646
  -7247238.88149  -5622260.76346  24013336.241    24013347.769    24013338.789
  -8287176.82849  -6435564.09347  21959400.307    21959411.911    21959402.361
   3213198.50449   2493618.25445  24903664.873    24903677.948    24903666.387
    417125.71249    329729.96247  20497044.123    20497052.702    20497046.404
 98  4 15 15 57 29.9990000  0 10G19G 2G18G15G31G27G26G 7G10G13
   2058516.70749   1601755.06547  21290696.492    21290706.917    21290698.705
  -3085425.56549  -2396190.72147  21194819.979    21194829.801    21194821.700
   7220808.98049   5612540.89045  24369092.665    24369105.290    24369094.669
  -6369507.00749  -4951703.51045  24263009.363    24263023.315    24263011.357
   5109853.55049   3972970.37746  23482103.762    23482114.618    23482105.467
  -2919266.42449  -2264608.77047  20090699.728    20090708.822    20090701.582
  -7341355.31749  -5695598.21446  23995426.265    23995438.031    23995428.997
  -8387519.95849  -6513753.50347  21940305.569    21940317.191    21940307.673
   3267125.00049   2535638.84245  24913927.152    24913939.934    24913928.384
    447206.86449    353169.77847  20502768.394    20502777.017    20502770.670
 98  4 15 15 57 59.9990000  0 10G19G 2G18G15G31G27G26G 7G10G13
   2101296.66649   1635090.03547  21298837.416    21298847.751    21298839.557
  -3115165.36849  -2419364.60047  21189160.715    21189170.501    21189162.387
   7323632.06949   5692662.58045  24388659.605    24388672.103    24388661.432
  -6444604.96649  -5010221.34045  24248718.748    24248732.651    24248720.745
   5195060.65749   4039365.40246  23498318.254    23498329.082    23498319.942
  -2942582.80449  -2282777.39947  20086262.721    20086271.862    20086264.648
  -7435125.03949  -5768665.50646  23977582.682    23977594.267    23977585.221
  -8487510.19349  -6591667.92947  21921278.116    21921289.644    21921280.129
   3321229.41749   2577798.06145  24924222.650    24924235.858    24924224.119
    477887.87949    377077.01547  20508606.797    20508615.479    20508609.091
 98  4 15 15 58 29.9990000  0 10G19G 2G18G15G31G27G26G 7G10G13
   2144379.30149   1668660.85447  21307035.727    21307046.141    21307037.955
  -3144686.69349  -2442368.23747  21183542.970    21183552.779    21183544.691
   7426516.47549   5772832.06345  24408238.317    24408250.483    24408239.779
  -6519413.53849  -5068513.68945  24234482.980    24234497.132    24234485.110
   5280576.28249   4106000.83746  23514591.719    23514602.236    23514593.113
  -2965519.54649  -2300650.20847  20081898.086    20081907.188    20081899.952
  -7528565.92549  -5841476.56346  23959801.686    23959813.116    23959804.000
  -8587169.94849  -6669324.84347  21902313.586    21902324.944    21902315.501
   3375481.08049   2620072.01645  24934546.198    24934559.703    24934547.872
    509128.92149    401420.63847  20514551.798    20514560.535    20514554.091
 98  4 15 15 58 59.9990000  0 10G19G 2G18G15G31G27G26G 7G10G13
   2187767.73049   1702469.95647  21315292.275    21315302.754    21315294.576
  -3173999.87749  -2465209.68247  21177964.858    21177974.650    21177966.597
   7529447.35549   5853037.75945  24427825.669    24427837.671    24427827.079
  -6593926.09749  -5126575.36745  24220303.481    24220317.710    24220305.831
   5366401.07049   4172877.18446  23530923.558    23530934.199    23530925.109
  -2988080.74749  -2318230.38547  20077604.814    20077613.961    20077606.721
  -7621681.59549  -5914034.21746  23942082.503    23942093.750    23942084.617
  -8686502.47649  -6746726.77347  21883411.231    21883422.532    21883413.150
   3429873.47549   2662455.61445  24944896.646    24944910.464    24944898.465
    540941.34349    426209.48947  20520605.540    20520614.296    20520607.833
 98  4 15 15 59 29.9990000  0 10G19G 2G18G15G31G27G26G 7G10G13
   2231476.04749   1736528.32747  21323609.769    21323620.272    21323612.078
  -3203103.68849  -2487887.98047  21172426.589    21172436.394    21172428.312
   7632419.73149   5933275.78445  24447421.056    24447432.741    24447422.227
  -6668138.35649  -5184403.00645  24206181.546    24206195.457    24206183.697
   5452530.72249   4239991.08346  23547313.525    23547324.204    23547315.191
  -3010268.84049  -2335519.82247  20073382.590    20073391.747    20073384.503
  -7714449.02149  -5986320.48746  23924429.350    23924440.768    23924431.547
  -8785494.80349  -6823863.61347  21864573.509    21864584.840    21864575.545
   3484381.37549   2704929.20845  24955269.323    24955282.900    24955270.966
    573322.70749    451441.67247  20526767.559    20526776.301    20526769.867
 98  4 15 15 59 59.9990000  0 10G19G 2G18G15G31G27G26G 7G10G13
   2275521.58249   1770849.45747  21331991.478    21332001.899    21331993.753
  -3231982.61049  -2510391.04747  21166931.124    21166940.930    21166932.838
   7735423.72549   6013538.43245  24467022.417    24467033.967    24467023.302
  -6742040.66249  -5241989.19045  24192118.560    24192132.230    24192120.585
   5538963.81249   4307341.43146  23563761.074    23563772.005    23563762.936
  -3032066.17149  -2352504.77047  20069234.714    20069243.863    20069236.634
  -7806858.42449  -6058327.78946  23906844.475    23906855.805    23906846.618
  -8884148.49149  -6900736.58047  21845800.285    21845811.585    21845802.314
   3538992.40749   2747483.16545  24965662.005    24965674.969    24965663.241
    606274.81249    477118.58847  20533038.199    20533046.918    20533040.494
 98  4 15 16  0 29.9990000  0 10G19G 2G18G15G31G27G26G 7G10G13
   2319911.19149   1805438.70347  21340438.604    21340449.041    21340440.891
  -3260639.56349  -2532721.14547  21161477.975    21161487.691    21161479.645
   7838421.30549   6093796.11345  24486622.115    24486633.800    24486623.235
  -6815649.11749  -5299346.35945  24178111.368    24178124.730    24178113.197
   5625688.92549   4374919.32146  23580264.266    23580275.385    23580266.257
  -3053487.10349  -2369196.42547  20065158.486    20065167.615    20065160.407
  -7898932.64849  -6130073.91846  23889323.228    23889334.604    23889325.486
  -8982499.40949  -6977373.62147  21827084.641    21827095.923    21827086.707
   3593696.02349   2790109.28645  24976071.615    24976084.809    24976073.195
    639785.54049    503230.79847  20539415.088    20539423.839    20539417.418
 98  4 15 16  0 59.9990000  0 10G19G 2G18G15G31G27G26G 7G10G13
   2364663.85449   1840310.85147  21348954.781    21348965.263    21348957.070
  -3289070.61349  -2554875.21447  21156067.840    21156077.450    21156069.428
   7941415.01249   6174050.74445  24506221.000    24506233.122    24506222.369
  -6888953.93949  -5356466.90845  24164161.672    24164175.204    24164163.548
   5712723.66749   4442738.48846  23596826.183    23596837.724    23596828.430
  -3074505.62649  -2385574.51347  20061158.784    20061167.934    20061160.745
  -7990638.31649  -6201532.85346  23871872.292    23871883.565    23871874.530
  -9080529.01949  -7053760.29047  21808430.248    21808441.483    21808432.243
   3648499.77549   2832813.41845  24986500.111    24986513.842    24986501.984
    673879.82349    529797.72147  20545903.066    20545911.781    20545905.385
 98  4 15 16  1 29.9990000  0 10G19G 2G18G15G31G27G26G 7G10G13
   2409777.60649   1875464.36447  21357539.633    21357550.160    21357541.931
  -3317265.28149  -2576845.09347  21150702.503    21150712.188    21150704.139
   8044417.82249   6254312.51945  24525821.711    24525834.080    24525823.282
  -6961950.92349  -5413347.62445  24150270.798    24150284.352    24150272.708
   5800050.39849   4510785.16746  23613443.863    23613455.637    23613446.200
  -3095099.02449  -2401621.33947  20057239.959    20057249.153    20057241.953
  -8081967.63849  -6272698.53546  23854492.860    23854504.109    23854495.151
  -9178220.55849  -7129883.52847  21789840.057    21789851.373    21789842.140
   3703407.36149   2875598.46445  24996948.998    24996962.432    24996950.740
    708543.23749    556808.12147  20552499.276    20552508.015    20552501.629
 98  4 15 16  1 59.9990000  0 10G19G 2G18G15G31G27G26G 7G10G13
   2455261.30749   1910906.14647  21366194.917    21366205.487    21366197.226
  -3345221.53249  -2598629.19647  21145382.506    21145392.332    21145384.252
   8147424.02349   6334576.88245  24545422.736    24545435.702    24545424.752
  -7034637.32249  -5469986.30045  24136439.038    24136452.702    24136440.924
   5887664.51349   4579055.79146  23630116.635    23630128.179    23630118.704
  -3115263.93949  -2417334.27847  20053402.771    20053411.945    20053404.716
  -8172940.66649  -6343586.56646  23837181.227    23837192.520    23837183.521
  -9275574.81749  -7205743.94947  21771314.138    21771325.457    21771316.192
   3758447.83349   2918487.06045  25007423.180    25007436.291    25007424.744
    743775.27949    584261.61247  20559203.741    20559212.463    20559206.091
 98  4 15 16  2 29.9990000  0 10G19G 2G18G15G31G27G26G 7G10G13
   2501112.05149   1946633.94047  21374920.071    21374930.672    21374922.372
  -3372932.72449  -2620222.34247  21140109.250    21140119.114    21140111.022
   8250442.71849   6414850.99645  24565026.824    24565039.531    24565028.606
  -7107007.81549  -5526378.84945  24122667.349    24122680.852    24122669.298
   5975568.76549   4647552.49146  23646844.574    23646855.922    23646846.387
  -3134998.38349  -2432711.78347  20049647.435    20049656.624    20049649.395
  -8263561.52149  -6414200.20046  23819936.141    23819947.909    23819938.878
  -9372576.46949  -7281329.61647  21752855.304    21752866.643    21752857.370
   3813635.74349   2961490.55345  25017925.512    25017938.291    25017926.620
    779581.90349    612162.82947  20566017.623    20566026.282    20566019.916
 98  4 15 16  2 59.9990000  0 10G19G 2G18G15G31G27G26G 7G10G13
   2547302.04649   1982626.08247  21383709.737    21383720.390    21383712.074
  -3400405.62649  -2641629.80547  21134881.379    21134891.196    21134883.099
   8353487.87749   6495145.75445  24584635.766    24584648.650    24584637.508
  -7179054.53349  -5582519.05245  24108957.393    24108970.778    24108959.291
   6063757.03749   4716270.49646  23663626.085    23663637.765    23663628.130
  -3154296.13349  -2447749.00847  20045975.152    20045984.415    20045977.143
  -8353828.39249  -6484537.99246  23802759.034    23802770.606    23802761.628
  -9469201.42649  -7356621.75147  21734468.140    21734479.512    21734470.241
   3868955.88649   3004597.11145  25028452.924    25028465.339    25028453.680
    815953.65149    640504.40247  20572938.954    20572947.629    20572941.270
 98  4 15 16  3 29.9990000  0 10G19G 2G18G15G31G27G26G 7G10G13
   2593824.20249   2018877.05047  21392562.701    21392573.336    21392564.991
  -3427658.45449  -2662865.77947  21129695.320    21129705.170    21129697.063
   8456542.42649   6575447.79145  24604246.548    24604259.716    24604248.091
  -7250782.69749  -5638411.07045  24095307.959    24095321.527    24095309.702
   6152208.40949   4785193.52146  23680457.821    23680469.652    23680459.939
  -3173189.80949  -2462471.36347  20042379.803    20042389.098    20042381.785
  -8443770.68049  -6554622.86146  23785643.551    23785655.072    23785646.180
  -9565461.12449  -7431629.27047  21716150.480    21716161.888    21716152.656
   3924397.87649   3047798.59245  25039002.981    25039015.689    25039003.926
    852866.84949    669267.88647  20579963.256    20579972.010    20579965.649
 98  4 15 16  3 59.9990000  0 10G19G 2G18G15G31G27G26G 7G10G13
   2640678.12949   2055386.54047  21401478.801    21401489.385    21401481.043
  -3454701.26749  -2683938.11347  21124549.261    21124559.113    21124551.017
   8559590.86949   6655745.06845  24623855.598    24623869.657    24623857.746
  -7322188.99349  -5694052.29045  24081719.743    24081733.153    24081721.471
   6240940.57949   4854335.33246  23697342.937    23697354.965    23697345.242
  -3191698.79749  -2476893.97047  20038857.648    20038866.972    20038859.661
  -8533379.55349  -6624447.93446  23768591.566    23768603.008    23768594.164
  -9661373.24049  -7506365.95047  21697899.054    21697910.361    21697901.132
   3979959.46249   3091093.24845  25049575.708    25049588.707    25049577.039
    890321.40649    698453.20147  20587090.670    20587099.415    20587093.048
 98  4 15 16  4 29.9990000  0 10G19G 2G18G15G31G27G26G 7G10G13
   2687831.93449   2092129.70547  21410451.830    21410462.520    21410454.109
  -3481574.87549  -2704878.59447  21119435.496    21119445.242    21119437.127
   8662614.64349   6736023.15645  24643460.347    24643474.598    24643462.618
  -7393287.34349  -5749453.50645  24068190.031    24068203.457    24068191.800
   6329939.94249   4923685.36446  23714278.922    23714291.064    23714281.375
  -3209832.82249  -2491024.39647  20035407.016    20035416.214    20035408.929
  -8622644.84449  -6694005.26646  23751604.873    23751616.406    23751607.490
  -9756960.09249  -7580849.17747  21679709.493    21679720.769    21679711.540
   4035601.36349   3134450.51045  25060163.861    25060177.057    25060165.504
    928276.74149    728028.73747  20594313.271    20594322.108    20594315.743
 98  4 15 16  4 59.9990000  0 10G19G 2G18G15G31G27G26G 7G10G13
   2735283.20249   2129104.65247  21419481.443    21419492.272    21419483.826
  -3508303.96349  -2725706.46847  21114349.001    21114358.843    21114350.713
   8765611.58749   6816280.31245  24663060.457    24663074.576    24663062.514
  -7464084.46149  -5804620.03445  24054717.892    24054731.229    24054719.503
   6419187.73149   4993228.96246  23731262.633    23731274.465    23731264.799
  -3227609.99549  -2504876.75647  20032024.143    20032033.354    20032026.067
  -8711566.81249  -6763295.08046  23734683.795    23734695.131    23734686.180
  -9852236.42649  -7655090.44147  21661578.927    21661590.285    21661581.054
   4091301.40349   3177853.06845  25070763.474    25070776.612    25070764.879
    966713.72749    757979.58147  20601627.647    20601636.463    20601630.087
 98  4 15 16  5 29.9990000  0 10G19G 2G18G15G31G27G26G 7G10G13
   2783082.22549   2166350.58647  21428577.442    21428588.182    21428579.729
  -3534853.02249  -2746394.05747  21109296.897    21109306.715    21109298.604
   8868624.82949   6896550.13845  24682663.697    24682677.557    24682665.120
  -7534544.99649  -5859524.27245  24041309.500    24041322.865    24041311.233
   6508719.14549   5062993.58646  23748300.388    23748311.855    23748302.143
  -3244991.88949  -2518421.10847  20028716.532    20028725.722    20028718.414
  -8800104.39549  -6832285.37346  23717835.641    23717846.982    23717838.028
  -9947187.20149  -7729078.01347  21643510.376    21643521.747    21643512.482
   4147107.10849   3221337.97045  25081383.506    25081396.183    25081384.413
   1005661.83149    788328.70847  20609039.251    20609048.084    20609041.696
 98  4 15 16  5 59.9990000  0 10G19G 2G18G15G31G27G26G 7G10G13
   2831203.39849   2203847.54047  21437734.673    21437745.410    21437736.976
  -3561224.50849  -2766943.28047  21104278.669    21104288.420    21104280.321
   8971652.85149   6976831.51545  24702269.245    24702283.182    24702270.722
  -7604680.20549  -5914174.94245  24027962.529    24027976.548    24027964.691
   6598525.93749   5132972.77246  23765389.802    23765401.634    23765391.895
  -3261966.08749  -2531647.77647  20025486.380    20025495.680    20025488.333
  -8888252.32849  -6900972.04346  23701061.481    23701072.973    23701064.081
 -10041830.01649  -7802825.62847  21625500.407    21625511.796    21625502.526
   4203004.49349   3264894.30245  25092020.407    25092033.154    25092021.316
   1045108.29149    819066.15947  20616545.707    20616554.536    20616548.146
 98  4 15 16  6 29.9990000  0 10G19G 2G18G15G31G27G26G 7G10G13
   2879663.37749   2241608.49747  21446956.269    21446967.104    21446958.680
  -3587395.45149  -2787336.23447  21099298.525    21099308.278    21099300.166
   9074716.97348   7057141.03545  24721881.656    24721896.071    24721883.355
  -7674475.46049  -5968560.79445  24014681.105    24014694.736    24014683.154
   6688600.52949   5203160.63046  23782530.340    23782542.330    23782532.567
  -3278513.38249  -2544541.78747  20022337.507    20022346.873    20022339.481
  -8976010.28949  -6969354.83246  23684361.662    23684373.096    23684364.268
 -10136134.78049  -7876309.82147  21607554.765    21607566.212    21607556.877
   4258996.65249   3308524.50345  25102675.625    25102688.332    25102676.352
   1085073.84449    850208.09947  20624150.959    20624159.791    20624153.366
 98  4 15 16  6 59.9990000  0 10G19G 2G18G15G31G27G26G 7G10G13
   2928464.08349   2279634.95747  21456242.820    21456253.650    21456245.198
  -3613334.20749  -2807548.26447  21094362.546    21094372.315    21094364.212
   9177814.21949   7137476.29945  24741499.951    24741515.145    24741502.046
  -7743924.50049  -6022676.84145  24001465.505    24001478.932    24001467.299
   6778937.00449   5273552.56046  23799721.116    23799732.935    23799723.149
  -3294631.60249  -2557101.45947  20019270.357    20019279.709    20019272.316
  -9063398.70949  -7037449.67346  23667732.220    23667743.619    23667734.696
 -10230079.51549  -7949513.48047  21589677.615    21589689.074    21589679.735
   4315096.01549   3352238.24845  25113350.804    25113363.845    25113351.694
   1125578.41449    881770.04247  20631858.811    20631867.608    20631861.175
 98  4 15 16  7 29.9990000  0 10G19G 2G18G15G31G27G26G 7G10G13
   2977580.79949   2317907.65947  21465589.526    21465600.356    21465591.849
  -3639040.53949  -2827579.18447  21089470.816    21089480.574    21089472.515
   9280899.75249   7217802.48445  24761117.110    24761131.686    24761118.883
  -7813043.01249  -6076535.34445  23988312.282    23988325.982    23988314.350
   6869528.22249   5344142.98846  23816959.860    23816972.049    23816962.227
  -3310318.83849  -2569325.30447  20016285.213    20016294.544    20016287.162
  -9150439.64949  -7105273.75246  23651168.790    23651180.278    23651171.289
 -10323679.30049  -8022448.33747  21571866.088    21571877.591    21571868.201
   4371289.45949   3396025.28145  25124043.495    25124057.310    25124044.880
   1166603.93749    913737.92947  20639665.708    20639674.534    20639668.104
 98  4 15 16  7 59.9990000  0 10G19G 2G18G15G31G27G26G 7G10G13
   3027011.85449   2356425.29747  21474996.009    21475006.832    21474998.325
  -3664510.46249  -2847425.88847  21084624.085    21084633.835    21084625.772
   9383939.39549   7298092.90645  24780725.368    24780739.672    24780727.084
  -7881833.07949  -6130137.90645  23975222.164    23975235.682    23975224.128
   6960362.15349   5414922.55946  23834245.266    23834257.210    23834247.459
  -3325586.79949  -2581222.44147  20013379.857    20013389.132    20013381.800
  -9237153.51249  -7172842.95746  23634667.673    23634679.166    23634670.118
 -10416921.42849  -8095104.50447  21554122.641    21554134.189    21554124.772
   4427558.35949   3439871.11945  25134751.285    25134764.954    25134752.568
   1208163.19449    946121.71547  20647574.174    20647583.042    20647576.617
 98  4 15 16  8 29.9990000  0 10G19G 2G18G15G31G27G26G 7G10G13
   3076771.16849   2395198.71747  21484464.897    21484475.760    21484467.245
  -3689738.07649  -2867083.78647  21079823.428    21079833.217    21079825.133
   9486920.70549   7378337.82445  24800321.813    24800336.602    24800324.060
  -7950281.78849  -6183474.49145  23962196.912    23962209.973    23962198.761
   7051439.75249   5485891.98545  23851577.053    23851588.756    23851578.966
  -3340443.09449  -2592798.80147  20010552.842    20010562.082    20010554.761
  -9323540.98649  -7240157.83846  23618228.543    23618240.197    23618231.160
 -10509787.83149  -8167467.90347  21536450.560    21536462.268    21536452.853
   4483894.73149   3483769.52545  25145471.595    25145485.552    25145473.137
   1250267.03849    978929.85247  20655586.394    20655595.181    20655588.767
 98  4 15 16  8 59.9990000  0  9G19G 2G18G15G31G27G26G 7G13
   3126847.04049   2434218.81247  21493994.119    21494004.954    21493996.386
  -3714744.23049  -2886569.11347  21075064.928    21075074.721    21075066.631
   9589830.10649   7458526.78845  24819904.849    24819919.636    24819907.053
  -8018392.85249  -6236547.90545  23949235.708    23949249.047    23949237.513
   7142765.22149   5557054.57045  23868955.842    23868967.542    23868957.706
  -3354895.53249  -2604060.46247  20007802.631    20007811.896    20007804.581
  -9409601.29849  -7307217.78446  23601851.979    23601863.409    23601854.440
 -10602293.11849  -8239549.90547  21518847.273    21518859.073    21518849.670
   1292902.38249   1012152.14347  20663699.723    20663708.486    20663702.035
 98  4 15 16  9 29.9990000  0  9G19G 2G18G15G31G27G26G 7G13
   3177252.60849   2473495.81347  21503585.982    21503596.941    21503588.285
  -3739543.27849  -2905893.06447  21070345.873    21070355.647    21070347.561
   9692668.35249   7538660.21545  24839474.202    24839489.603    24839476.713
  -8086159.60849  -6289353.12345  23936340.244    23936353.434    23936341.896
   7234335.04749   5628407.54845  23886380.762    23886392.837    23886382.952
  -3368952.43449  -2615013.91447  20005127.803    20005137.029    20005129.707
  -9495310.79349  -7374004.37246  23585541.969    23585553.428    23585544.486
 -10694442.40749  -8311354.51347  21501311.851    21501323.631    21501314.265
   1336080.38749   1045797.28347  20671916.249    20671925.044    20671918.595
 98  4 15 16  9 59.9990000  0  9G19G 2G18G15G31G27G26G 7G13
   3227982.87449   2513025.82847  21513239.657    21513250.667    21513241.966
  -3764160.73549  -2925075.50947  21065661.296    21065671.098    21065663.021
   9795446.26049   7618746.64545  24859032.514    24859047.573    24859034.752
  -8153590.23449  -6341896.42045  23923508.884    23923521.613    23923510.434
   7326112.69149   5699922.46545  23903846.019    23903857.747    23903847.833
  -3382634.74349  -2625675.47447  20002524.280    20002533.434    20002526.119
  -9580663.34149  -7440512.82346  23569299.999    23569311.320    23569302.379
 -10786236.96949  -8382882.70347  21483843.992    21483855.687    21483846.351
   1379788.16849   1079855.23747  20680233.599    20680242.423    20680235.938
 98  4 15 16 10 29.9990000  0  9G19G 2G18G15G31G27G26G 7G13
   3279029.82649   2552802.61047  21522953.596    21522964.606    21522955.930
  -3788624.77049  -2944138.40347  21061005.923    21061015.757    21061007.659
   9898179.65049   7698798.39745  24878582.224    24878597.329    24878584.652
  -8220686.73249  -6394179.31545  23910740.879    23910753.331    23910742.297
   7418087.50649   5771591.01445  23921348.164    23921360.090    23921350.197
  -3395935.81749  -2636039.96947  19999993.109    20000002.336    19999994.977
  -9665630.92649  -7506721.30046  23553131.257    23553142.494    23553133.611
 -10877681.73249  -8454138.32447  21466442.755    21466454.282    21466444.976
   1424002.22149   1114307.69247  20688647.181    20688656.162    20688649.583
 98  4 15 16 10 59.9990000  0  9G19G 2G18G15G31G27G26G 7G13
   3330403.85449   2592834.25747  21532729.831    21532740.804    21532732.136
  -3812930.17249  -2963077.70047  21056380.756    21056390.638    21056382.507
  10000885.85249   7778828.93245  24898127.360    24898142.069    24898129.154
  -8287443.49249  -6446197.50545  23898037.208    23898049.716    23898038.829
   7510257.32549   5843411.52245  23938887.744    23938899.500    23938889.666
  -3408839.71249  -2646094.96847  19997537.521    19997546.834    19997539.421
  -9750194.96049  -7572615.32646  23537039.497    23537050.493    23537041.601
 -10968770.83549  -8525116.81247  21449109.012    21449120.528    21449111.243
   1468726.41949   1149157.65847  20697157.839    20697166.979    20697160.352
 98  4 15 16 11 29.9990000  0  9G19G 2G18G15G31G27G26G 7G13
   3382123.81249   2633135.46547  21542571.845    21542582.826    21542574.146
  -3837049.98249  -2981872.36747  21051790.917    21051800.786    21051792.655
  10103575.84749   7858846.86845  24917670.156    24917683.559    24917670.824
  -8353841.36149  -6497936.01445  23885401.992    23885414.776    23885403.589
   7602624.58149   5915385.89545  23956464.704    23956476.517    23956466.755
  -3421312.15149  -2655813.76747  19995164.082    19995173.423    19995166.023
  -9834320.70649  -7638167.81946  23521030.795    23521041.813    23521033.041
 -11059475.76949  -8595795.94247  21431848.470    21431859.912    21431850.658
   1513966.04649   1184409.25747  20705766.636    20705775.857    20705769.199
 98  4 15 16 11 59.9990000  0  9G19G 2G18G15G31G27G26G 7G13
   3434173.68549   2673693.74647  21552476.729    21552487.648    21552478.988
  -3860997.80649  -3000533.01947  21047233.851    21047243.653    21047235.556
  10206235.60848   7938841.23545  24937205.463    24937219.416    24937206.490
  -8419892.84749  -6549404.63345  23872832.636    23872845.540    23872834.259
   7695181.63549   5987508.14545  23974077.980    23974089.663    23974079.883
  -3433356.30449  -2665198.84347  19992872.239    19992881.519    19992874.133
  -9918032.58249  -7703397.81246  23505100.839    23505111.953    23505103.185
 -11149816.63449  -8666191.39047  21414657.166    21414668.597    21414659.346
   1559686.87949   1220035.82347  20714467.093    20714476.318    20714469.614
 98  4 15 16 12 29.9990000  0  9G19G 2G18G15G31G27G26G 7G13
   3486556.58549   2714511.53047  21562444.927    21562455.866    21562447.212
  -3884757.26349  -3019046.89147  21042712.524    21042722.384    21042714.303
  10308858.17249   8018806.59345  24956733.687    24956748.306    24956735.019
  -8485582.47349  -6600591.27845  23860332.177    23860345.168    23860333.962
   7787958.54849   6059801.72345  23991732.693    23991744.604    23991734.814
  -3444967.61549  -2674246.63847  19990662.705    19990671.986    19990664.627
 -10001334.59049  -7768308.43146  23489248.702    23489260.062    23489251.233
 -11239794.61249  -8736304.06847  21397534.871    21397546.273    21397537.076
   1605904.43249   1256049.44347  20723262.004    20723271.279    20723264.574
 98  4 15 16 12 59.9990000  0  9G19G 2G18G15G31G27G26G 7G13
   3539253.31649   2755573.85847  21572472.816    21572483.782    21572475.117
  -3908317.19749  -3037405.29047  21038229.237    21038239.142    21038231.007
  10411417.26448   8098722.53145  24976250.935    24976264.860    24976251.750
  -8550920.73149  -6651504.15945  23847898.688    23847911.751    23847900.396
   7880943.43049   6132257.33045  24009426.937    24009439.265    24009429.374
  -3456168.00349  -2682974.23047  19988531.434    19988540.629    19988533.273
 -10084265.33549  -7832929.75546  23473467.394    23473478.790    23473469.994
 -11329430.43049  -8806150.12147  21380477.785    21380489.100    21380479.958
   1652595.10049   1292431.72747  20732147.130    20732156.281    20732149.585
 98  4 15 16 13 29.9990000  0  9G19G 2G18G15G31G27G26G 7G13
   3592264.84949   2796881.47447  21582560.656    21582571.600    21582562.958
  -3931675.98949  -3055606.95947  21033784.187    21033794.154    21033786.016
  10513911.50349   8178587.85945  24995754.753    24995769.558    24995755.686
  -8615892.65849  -6702131.58245  23835534.802    23835547.726    23835536.622
   7974151.24149   6204886.64345  24027163.672    24027176.311    24027166.216
  -3466953.14149  -2691378.25647  19986479.081    19986488.309    19986480.961
 -10166838.63949  -7897272.56146  23457754.168    23457765.563    23457756.730
 -11418719.84549  -8875726.25347  21363486.644    21363497.828    21363488.743
   1699760.08649   1329183.60447  20741122.403    20741131.556    20741124.842
 98  4 15 16 13 59.9990000  0  9G19G 2G18G15G31G27G26G 7G13
   3645589.90249   2838433.39747  21592708.097    21592719.049    21592710.427
  -3954838.00249  -3073655.29347  21029376.660    21029386.571    21029378.461
  10616349.58249   8258409.53045  25015248.586    25015262.791    25015249.295
  -8680494.61749  -6752470.69345  23823241.508    23823254.589    23823243.248
   8067580.94749   6277688.88145  24044943.257    24044955.411    24044945.459
  -3477341.15149  -2699472.83047  19984502.344    19984511.562    19984504.188
 -10249073.05149  -7961351.28446  23442105.626    23442116.780    23442107.986
 -11507670.86649  -8945038.70047  21346559.890    21346570.982    21346561.915
   1747407.74349   1366311.59247  20750189.501    20750198.679    20750191.938
 98  4 15 16 14 29.9990000  0  9G19G 2G18G15G31G27G26G 7G13
   3699213.63249   2880218.05347  21602912.377    21602923.367    21602914.691
  -3977807.64149  -3091553.72247  21025005.732    21025015.585    21025007.489
  10718723.93548   8338181.50445  25034729.623    25034744.391    25034730.568
  -8744730.99249  -6802524.97946  23811017.649    23811030.781    23811019.363
   8161217.79149   6350652.48745  24062761.981    24062774.058    24062764.099
  -3487332.13249  -2707258.03347  19982601.145    19982610.337    19982602.979
 -10330960.83349  -8025159.91946  23426522.507    23426534.016    23426525.188
 -11596280.38549  -9014085.04247  21329698.059    21329709.093    21329700.033
   1795530.78549   1403810.00847  20759347.114    20759356.273    20759349.491
 98  4 15 16 14 59.9990000  0  9G19G 2G18G15G31G27G26G 7G13
   3753150.43449   2922246.66247  21613176.301    21613187.264    21613178.532
  -4000572.50949  -3109292.58747  21020673.711    21020683.594    21020675.498
  10821046.86749   8417913.39345  25054200.530    25054216.001    25054202.128
  -8808589.94749  -6852285.16946  23798865.663    23798878.781    23798867.359
   8255058.53449   6423775.01445  24080619.494    24080631.498    24080621.511
  -3496903.66949  -2714716.39347  19980779.711    19980788.968    19980781.574
 -10412477.89749  -8088679.67446  23411010.297    23411021.872    23411013.025
 -11684530.31449  -9082851.18147  21312904.496    21312915.679    21312906.612
   1844125.84249   1441676.23047  20768594.392    20768603.700    20768596.848
 98  4 15 16 15 29.9990000  0  9G19G 2G18G15G31G27G26G 7G13
   3807393.43349   2964513.86247  21623498.381    21623509.410    21623500.648
  -4023150.10249  -3126885.53147  21016377.427    21016387.261    21016379.156
  10923299.46949   8497590.52945  25073658.689    25073673.982    25073660.539
  -8872080.12549  -6901757.95946  23786783.736    23786796.906    23786785.475
   8349091.10149   6497047.01045  24098513.471    24098525.463    24098515.520
  -3506061.40849  -2721852.31147  19979036.969    19979046.333    19979038.914
 -10493611.92049  -8151900.96646  23395571.065    23395582.607    23395573.740
 -11772421.11849  -9151337.48647  21296179.414    21296190.580    21296181.522
   1893192.27949   1479909.76147  20777931.465    20777940.818    20777933.939
 98  4 15 16 15 59.9990000  0  9G19G 2G18G15G31G27G26G 7G13
   3861934.73749   3007013.51347  21633877.250    21633888.339    21633879.561
  -4045540.94049  -3144332.94647  21012116.549    21012126.433    21012118.349
  11025481.57749   8577212.71645  25093103.183    25093118.896    25093105.347
  -8935206.42249  -6950947.26046  23774771.428    23774784.251    23774773.000
   8443307.42649   6570462.17545  24116442.201    24116454.370    24116444.364
  -3514804.93149  -2728665.47147  19977373.113    19977382.522    19977375.072
 -10574333.99149  -8214801.25746  23380210.183    23380221.766    23380212.874
 -11859941.93049  -9219535.48447  21279524.534    21279535.903    21279526.813
   1942721.33649   1518503.77547  20787356.684    20787365.943    20787359.075
 98  4 15 16 16 29.9990000  0  9G19G 2G18G15G31G27G26G 7G13
   3916776.88649   3049747.58647  21644313.418    21644324.563    21644315.742
  -4067754.22549  -3161642.00847  21007889.499    21007899.374    21007891.295
  11127578.16149   8656768.28645  25112531.609    25112547.076    25112533.703
  -8997964.03849  -6999849.26846  23762828.989    23762841.918    23762830.645
   8537717.14449   6644028.04745  24134407.980    24134420.141    24134410.051
  -3523121.65649  -2735146.06047  19975790.515    19975799.951    19975792.499
 -10654625.79549  -8277366.26746  23364931.151    23364942.695    23364933.934
 -11947079.99549  -9287435.24247  21262942.704    21262954.068    21262944.948
   1992712.17249   1557457.61547  20796869.709    20796878.939    20796872.072
 98  4 15 16 16 59.9990000  0  9G19G 2G18G15G31G27G26G 7G13
   3971940.11949   3092731.85547  21654810.444    21654821.880    21654812.991
  -4089780.42649  -3178805.29547  21003697.962    21003707.904    21003699.837
  11229601.14049   8736266.51545  25131946.667    25131961.634    25131948.338
  -9060333.87449  -7048449.12546  23750960.394    23750973.405    23750962.002
   8632336.69449   6717757.39945  24152413.745    24152425.843    24152415.590
  -3531004.13649  -2741288.27447  19974290.590    19974300.004    19974292.565
 -10734478.10749  -8339588.81946  23349736.104    23349747.274    23349738.549
 -12033810.25149  -9355017.22547  21246438.562    21246449.846    21246440.680
   2043189.96449   1596790.90047  20806475.328    20806484.581    20806477.730
 98  4 15 16 17 29.9990000  0  8G19G 2G15G31G27G26G 7G13
   4027412.92049   3135957.35247  21665366.574    21665378.062    21665369.147
  -4111639.51849  -3195838.36447  20999538.420    20999548.260    20999540.206
  -9122318.72049  -7096749.03846  23739165.139    23739177.943    23739166.782
   8727161.63149   6791646.82145  24170458.473    24170470.574    24170460.344
  -3538459.41249  -2747097.60147  19972871.935    19972881.329    19972873.871
 -10813899.31349  -8401475.44546  23334622.870    23334633.828    23334625.139
 -12120123.01749  -9422273.89047  21230013.639    21230025.046    21230015.851
   2094163.07349   1636510.14847  20816175.228    20816184.469    20816177.640
 98  4 15 16 17 59.9990000  0  8G19G 2G15G31G27G26G 7G13
   4083183.25349   3179414.68047  21675979.367    21675990.928    21675981.963
  -4133342.36949  -3212749.69447  20995408.516    20995418.389    20995410.303
  -9183923.23649  -7144752.54646  23727441.983    23727454.828    23727443.763
   8822181.98249   6865688.52345  24188540.478    24188552.508    24188542.292
  -3545501.07849  -2752584.64147  19971531.904    19971541.352    19971533.873
 -10892910.27949  -8463042.40446  23319587.619    23319598.467    23319589.815
 -12206029.12749  -9489213.69047  21213666.205    21213677.680    21213668.422
   2145620.02049   1676606.40347  20825967.261    20825976.448    20825969.652
 98  4 15 16 18 29.9990000  0  8G19G 2G15G31G27G26G 7G13
   4139269.26349   3223117.99247  21686652.400    21686663.813    21686654.872
  -4154869.04549  -3229523.74047  20991312.109    20991322.009    20991313.941
  -9245136.59349  -7192451.28246  23715793.501    23715806.223    23715795.186
   8917395.39449   6939880.64545  24206659.229    24206670.971    24206660.810
  -3552125.78949  -2757746.77447  19970271.248    19970280.742    19970273.234
 -10971530.19149  -8524304.65346  23304626.872    23304637.513    23304628.921
 -12291532.72549  -9555839.83847  21197395.427    21197406.876    21197397.625
   2197572.22849   1717088.58347  20835853.430    20835862.684    20835855.873
 98  4 15 16 18 59.9990000  0  8G19G 2G15G31G27G26G 7G13
   4195659.13049   3267058.08147  21697383.147    21697394.501    21697385.578
  -4176209.89749  -3246152.98347  20987251.054    20987260.964    20987252.917
  -9305968.79949  -7239852.98945  23704217.464    23704230.283    23704219.189
   9012776.12649   7014203.18345  24224809.814    24224821.462    24224811.244
  -3558347.00849  -2762594.50047  19969087.343    19969096.890    19969089.412
 -11049783.31949  -8585281.08946  23289735.417    23289746.365    23289737.805
 -12376648.60249  -9622163.86947  21181198.357    21181209.861    21181200.595
   2250000.34649   1757941.60647  20845830.229    20845839.493    20845832.667
 98  4 15 16 19 29.9990000  0  8G19G 2G15G31G27G26G 7G13
   4252366.45749   3311245.53247  21708174.286    21708185.614    21708176.676
  -4197343.64849  -3262620.85247  20983229.459    20983239.334    20983231.319
  -9366402.19249  -7286943.94346  23692717.258    23692730.240    23692719.155
   9108336.49049   7088665.64845  24242994.396    24243006.168    24242995.999
  -3564143.43849  -2767111.22447  19967984.425    19967993.897    19967986.454
 -11127648.42949  -8645955.17246  23274918.110    23274929.096    23274920.532
 -12461375.39949  -9688184.72147  21165075.357    21165086.885    21165077.614
   2302907.42549   1799167.83847  20855898.180    20855907.459    20855900.596
 98  4 15 16 19 59.9990000  0  8G19G 2G15G31G27G26G 7G13
   4309397.32549   3355685.10147  21719026.911    21719038.289    21719029.338
  -4218274.80049  -3278930.85247  20979246.413    20979256.286    20979248.246
  -9426441.11749  -7333727.47545  23681292.107    23681305.233    23681294.144
   9204060.72149   7163255.81945  24261210.333    24261221.919    24261211.841
  -3569519.81849  -2771300.63247  19966961.381    19966970.829    19966963.438
 -11205125.32549  -8706326.75346  23260174.563    23260185.700    23260177.077
 -12545742.34149  -9753925.16847  21149020.771    21149032.353    21149023.077
   2356272.79349   1840751.18647  20866053.278    20866062.640    20866055.723
 98  4 15 16 20 29.9990000  0  8G19G 2G15G31G27G26G 7G13
   4366764.21249   3400386.50047  21729943.342    21729954.881    21729945.911
  -4239016.53249  -3295093.25347  20975299.371    20975309.289    20975301.225
  -9486079.10149  -7380198.62846  23669943.421    23669956.460    23669945.431
   9299941.58149   7237968.02245  24279455.186    24279467.655    24279457.451
  -3574456.73149  -2775147.60247  19966021.976    19966031.387    19966024.005
 -11282197.00649  -8766382.59346  23245508.304    23245519.449    23245510.795
 -12629738.49649  -9819376.69047  21133036.947    21133048.406    21133039.132
   2410098.91049   1882693.55847  20876296.124    20876305.486    20876298.517
 98  4 15 16 20 59.9990000  0  8G19G 2G15G31G27G26G 7G13
   4424433.83049   3445323.78947  21740917.580    21740929.081    21740920.150
  -4259598.11849  -3311130.86847  20971382.814    20971392.744    20971384.679
  -9545324.23249  -7426363.61046  23658669.493    23658682.383    23658671.402
   9395968.00049   7312793.65045  24297728.195    24297741.096    24297730.745
  -3578963.91349  -2778659.72047  19965164.303    19965173.749    19965166.356
 -11358850.91849  -8826112.89546  23230921.641    23230932.765    23230924.092
 -12713367.15849  -9884541.85547  21117122.919    21117134.377    21117125.085
   2464371.62649   1924983.92847  20886623.949    20886633.307    20886626.306
 98  4 15 16 21 29.9990000  0  8G19G 2G15G31G27G26G 7G13
   4482404.33649   3490495.53247  21751949.063    21751960.587    21751951.645
  -4280024.59049  -3327047.61747  20967495.794    20967505.719    20967497.655
  -9604169.69549  -7472217.15246  23647471.611    23647484.544    23647473.495
   9492135.90349   7387729.54645  24316028.170    24316041.345    24316030.915
  -3583040.40949  -2781836.24147  19964388.693    19964398.054    19964390.653
 -11435071.46249  -8885505.49646  23216417.329    23216428.539    23216419.757
 -12796624.61749  -9949417.76847  21101279.448    21101290.956    21101281.681
   2519102.34949   1967631.18247  20897038.916    20897048.270    20897041.226
 98  4 15 16 21 59.9990000  0  8G19G 2G15G31G27G26G 7G13
   4540661.36449   3535890.55047  21763035.082    21763046.601    21763037.641
  -4300307.72149  -3342852.66647  20963636.108    20963646.001    20963637.915
  -9662623.70349  -7517765.66146  23636348.157    23636361.111    23636349.978
   9588422.40749   7462757.81845  24334351.616    24334364.263    24334353.733
  -3586691.54649  -2784681.31347  19963693.947    19963703.308    19963695.897
 -11510887.36249  -8944582.80746  23201989.994    23202001.348    23201992.455
 -12879510.60649 -10014004.22447  21085506.788    21085518.240    21085508.996
   2574282.21249   2010628.41847  20907539.248    20907548.705    20907541.623
 98  4 15 16 22 29.9990000  0  8G19G 2G15G31G27G26G 7G13
   4599203.84949   3581507.99947  21774175.286    21774186.956    21774177.928
  -4320428.25749  -3358531.02547  20959807.260    20959817.245    20959809.103
  -9720670.15449  -7562996.62646  23625302.345    23625314.903    23625304.104
   9684839.64249   7537887.96645  24352699.467    24352712.068    24352701.522
  -3589901.96649  -2787182.97347  19963083.043    19963092.418    19963084.986
 -11586293.49949  -9003340.81646  23187640.744    23187652.083    23187643.153
 -12961996.79949 -10078279.15147  21069810.140    21069821.631    21069812.388
   2629932.05449   2053991.86347  20918129.030    20918138.586    20918131.460
 98  4 15 16 22 59.9990000  0  8G19G 2G15G31G27G26G 7G13
   4658037.14349   3627352.05047  21785370.992    21785382.683    21785373.611
  -4340359.58349  -3374061.94347  20956014.425    20956024.404    20956016.294
  -9778305.23349  -7607907.00446  23614334.823    23614347.301    23614336.530
   9781393.87449   7613124.84645  24371072.853    24371085.878    24371075.329
  -3592676.97449  -2789345.34747  19962554.912    19962564.382    19962556.937
 -11661286.84349  -9061777.18246  23173369.835    23173381.311    23173372.400
 -13044090.36249 -10142248.12947  21054188.287    21054199.734    21054190.499
   2686055.73049   2097724.53447  20928809.021    20928818.651    20928811.488
 98  4 15 16 23 29.9990000  0  8G19G 2G15G31G27G26G 7G13
   4717172.09349   3673431.16547  21796624.089    21796635.771    21796626.704
  -4360112.03649  -3389453.47747  20952255.653    20952265.597    20952257.514
  -9835541.50749  -7652506.61946  23603442.902    23603455.524    23603444.734
   9878071.83849   7688458.15045  24389470.208    24389483.229    24389472.649
  -3595020.40949  -2791171.43347  19962109.030    19962118.491    19962111.026
 -11735894.70849  -9119913.17146  23159172.347    23159183.854    23159174.921
 -13125809.69249 -10205925.49447  21038637.520    21038649.052    21038639.809
   2742624.32049   2141803.88947  20939573.726    20939583.379    20939576.181
 98  4 15 16 23 59.9990000  0  8G19G 2G15G31G27G26G 7G13
   4776631.00549   3719762.71247  21807938.661    21807950.464    21807941.385
  -4379685.14149  -3404705.26547  20948530.982    20948540.972    20948532.872
  -9892368.11349  -7696787.03846  23592629.094    23592641.862    23592630.936
   9974887.37149   7763898.64145  24407894.908    24407906.737    24407896.049
  -3596918.39449  -2792650.41347  19961747.863    19961757.336    19961749.909
 -11810100.25249  -9177735.65146  23145051.535    23145062.984    23145054.079
 -13207141.73649 -10269301.08447  21023160.494    21023172.062    21023162.826
   2799627.66049   2186222.00847  20950421.058    20950430.826    20950423.614
 98  4 15 16 24 29.9990000  0  8G19G 2G15G31G27G26G 7G13
   4836430.34349   3766359.52847  21819318.125    21819329.994    21819320.877
  -4399066.42849  -3419807.58147  20944842.885    20944852.874    20944844.750
  -9948774.94749  -7740740.34146  23581895.061    23581907.985    23581896.997
  10071858.55349   7839460.46245  24426347.476    24426359.933    24426349.248
  -3598371.98849  -2793783.11247  19961471.297    19961480.757    19961473.329
 -11883871.94249  -9235220.06946  23131013.153    23131024.711    23131015.803
 -13288077.12949 -10332367.59047  21007758.962    21007770.502    21007761.279
   2857060.51449   2230974.82547  20961350.225    20961360.000    20961352.778
 98  4 15 16 24 59.9990000  0  8G19G 2G15G31G27G26G 7G13
   4896563.36949   3813216.36847  21830761.354    21830773.002    21830763.902
  -4418261.08049  -3434764.46747  20941190.282    20941200.274    20941192.174
 -10004763.69449  -7784367.88146  23571240.751    23571253.544    23571242.618
  10168982.02349   7915140.89145  24444829.318    24444842.039    24444831.390
  -3599398.30449  -2794582.87247  19961276.112    19961285.454    19961278.064
 -11957212.08149  -9292368.20746  23117056.854    23117068.503    23117059.600
 -13368623.19549 -10395130.72147  20992431.524    20992443.074    20992433.860
   2914902.21749   2276046.22447  20972357.203    20972366.995    20972359.717
 98  4 15 16 25 29.9990000  0  8G19G 2G15G31G27G26G 7G13
   4957007.87849   3860315.90947  21842263.784    21842275.295    21842266.209
  -4437291.63049  -3449593.48047  20937568.869    20937578.901    20937570.799
 -10060335.00249  -7827670.15346  23560665.740    23560678.628    23560667.605
  10266250.74249   7990934.54945  24463339.442    24463351.703    24463341.048
  -3600006.87249  -2795057.11047  19961160.295    19961169.678    19961162.247
 -12030132.54249  -9349189.33346  23103180.448    23103192.105    23103183.298
 -13448773.71449 -10457585.63747  20977179.469    20977190.964    20977181.725
   2973141.14949   2321427.14847  20983439.718    20983449.577    20983442.264
 98  4 15 16 25 59.9990000  0  8G19G 2G15G31G27G26G 7G13
   5017745.21749   3907643.64047  21853821.784    21853833.298    21853824.232
  -4456156.09349  -3464293.07247  20933979.096    20933989.112    20933981.030
 -10115481.28349  -7870641.23246  23550171.655    23550184.563    23550173.492
  10363663.81549   8066840.67945  24481877.089    24481889.061    24481878.300
  -3600204.24149  -2795210.93147  19961122.732    19961132.164    19961124.680
 -12102620.18249  -9405673.19646  23089386.453    23089398.060    23089389.321
 -13528516.14249 -10519722.55747  20962005.062    20962016.472    20962007.233
   3031795.20949   2367131.55647  20994601.248    20994611.134    20994603.826
 98  4 15 16 26 29.9990000  0  8G19G 2G15G31G27G26G 7G13
   5078751.74149   3955181.12447  21865430.922    21865442.527    21865433.445
  -4474857.22749  -3478865.39847  20930420.437    20930430.440    20930422.360
 -10170201.84049  -7913280.56146  23539758.722    23539771.641    23539760.510
  10461219.62249   8142858.03045  24500441.836    24500453.403    24500442.650
  -3599995.95149  -2795048.65647  19961162.355    19961171.852    19961164.313
 -12174690.44449  -9461831.82246  23075672.179    23075683.490    23075674.776
 -13607846.95049 -10581538.73647  20946908.925    20946920.325    20946911.041
   3090877.86349   2413169.92247  21005844.376    21005854.249    21005846.917
 98  4 15 16 26 59.9990000  0  8G19G 2G15G31G27G26G 7G13
   5140023.56149   4002925.32647  21877090.693    21877102.229    21877093.119
  -4493404.30249  -3493317.67647  20926891.088    20926901.044    20926892.959
 -10224490.52949  -7955583.41646  23529427.971    23529440.782    23529429.772
  10558911.50249   8218981.43145  24519032.221    24519043.764    24519032.920
  -3599367.21349  -2794558.76047  19961281.950    19961291.542    19961283.926
 -12246343.62149  -9517665.45846  23062037.004    23062048.292    23062039.646
 -13686768.55149 -10643036.05247  20931890.458    20931902.004    20931892.694
   3150403.54749   2459553.50947  21017171.735    21017181.685    21017174.311
 98  4 15 16 27 29.9990000  0  8G19G 2G15G31G27G26G 7G13
   5201564.70449   4050879.39447  21888801.787    21888813.180    21888804.087
  -4511803.06649  -3507654.38647  20923389.884    20923399.862    20923391.772
 -10278347.43949  -7997549.78746  23519179.146    23519192.116    23519181.104
  10656738.86349   8295210.38145  24537648.071    24537659.908    24537648.869
  -3598297.59949  -2793725.32047  19961485.492    19961495.154    19961487.507
 -12317576.55349  -9573171.62546  23048481.919    23048493.107    23048484.545
 -13765268.23149 -10704204.59747  20916952.428    20916963.934    20916954.638
   3210372.69049   2506282.64247  21028583.611    21028593.519    21028586.097
 98  4 15 16 27 59.9990000  0  8G19G 2G15G31G27G26G 7G13
   5263380.14949   4099047.20747  21900564.913    21900576.375    21900567.194
  -4530048.83749  -3521871.87847  20919917.825    20919927.815    20919919.739
 -10331773.69949  -8039180.59946  23509012.575    23509025.379    23509014.351
  10754697.34249   8371541.51645  24556288.940    24556300.943    24556289.797
  -3596776.53149  -2792540.09747  19961774.915    19961784.645    19961776.987
 -12388382.47649  -9628345.06446  23035007.848    23035019.185    23035010.607
 -13843344.93649 -10765043.55647  20902094.853    20902106.359    20902097.085
   3270779.52149   2553352.83747  21040078.650    21040088.635    21040081.178
 98  4 15 16 28 29.9990000  0  8G19G 2G15G31G27G26G 7G13
   5325467.91249   4147427.22146  21912379.870    21912391.328    21912382.093
  -4548150.33049  -3535976.94547  20916473.272    20916483.254    20916475.133
 -10384781.42849  -8080485.27946  23498925.534    23498938.262    23498927.351
  10852770.76149   8447962.23645  24574951.455    24574963.777    24574952.552
  -3594808.59149  -2791006.65747  19962149.488    19962159.157    19962151.544
 -12458763.04549  -9683187.05546  23021614.822    23021626.202    23021617.595
 -13921022.44449 -10825571.44747  20887313.320    20887324.781    20887315.558
   3331596.04049   2600742.27147  21051651.629    21051661.719    21051654.201
 98  4 15 16 28 59.9990000  0  8G19G 2G15G31G27G26G 7G13
   5387849.00149   4196035.78547  21924250.760    21924262.101    21924252.873
  -4566094.99149  -3549959.80747  20913058.511    20913068.486    20913060.358
 -10437363.00949  -8121457.88346  23488919.498    23488932.229    23488921.310
  10950957.60749   8524471.30545  24593635.797    24593648.314    24593637.000
  -3592379.02649  -2789113.50447  19962611.809    19962621.486    19962613.951
 -12528692.66749  -9737677.65646  23008307.931    23008319.079    23008310.456
 -13998298.36149 -10885786.40947  20872608.172    20872619.620    20872610.463
   3392811.44949   2648442.53347  21063300.544    21063310.706    21063303.156
 98  4 15 16 29 29.9990000  0  8G19G 2G15G31G27G26G 7G13
   5450524.07649   4244873.43547  21936177.390    21936188.840    21936179.606
  -4583866.07049  -3563807.40347  20909676.798    20909686.758    20909678.644
 -10489510.05849  -8162091.89746  23478995.926    23479008.961    23478997.980
  11049256.70449   8601067.89445  24612341.558    24612354.223    24612342.900
  -3589485.09649  -2786858.50947  19963162.612    19963172.194    19963164.702
 -12598152.83749  -9791802.45946  22995090.179    22995101.291    22995092.588
 -14075150.85049 -10945671.43347  20857983.732    20857995.025    20857985.947
   3454422.83949   2696451.33947  21075024.896    21075035.031    21075027.464
 98  4 15 16 29 59.9990000  0  8G19G 2G15G31G27G26G 7G13
   5513491.09149   4293938.56346  21948159.603    21948171.124    21948161.884
  -4601466.44949  -3577521.98847  20906327.607    20906337.505    20906329.421
 -10541222.17149  -8202387.01346  23469155.488    23469168.409    23469157.531
  11147650.27949   8677738.11045  24631065.547    24631077.994    24631066.682
  -3586141.59549  -2784253.20647  19963798.923    19963808.416    19963800.980
 -12667143.89949  -9845561.71946  22981961.555    22981972.756    22981963.989
 -14151598.50149 -11005240.99647  20843436.257    20843447.483    20843438.442
   3516423.65749   2744763.60147  21086823.312    21086833.416    21086825.905
 98  4 15 16 30 29.9990000  0  8G19G 2G15G31G27G26G 7G13
   5576768.67949   4343245.69746  21960200.909    21960212.539    21960203.301
  -4618884.08949  -3591094.18347  20903013.218    20903023.041    20903014.979
 -10592480.30449  -8242328.35646  23459401.452    23459414.285    23459403.374
  11246146.79549   8754488.51345  24649808.780    24649821.261    24649810.029
  -3582342.86449  -2781293.18447  19964521.839    19964531.298    19964523.865
 -12735658.50949  -9898949.71446  22968923.744    22968934.817    22968926.105
 -14227632.30249 -11064488.07847  20828967.445    20828978.694    20828969.653
   3578826.15849   2793388.86647  21098698.180    21098708.255    21098700.788
 98  4 15 16 30 59.9990000  0  8G19G 2G15G31G27G26G 7G13
   5640355.46649   4392793.76446  21972301.357    21972312.767    21972303.552
  -4636129.54949  -3604532.21547  20899731.494    20899741.358    20899733.309
 -10643281.53649  -8281913.68846  23449734.213    23449746.960    23449736.149
  11344749.38349   8831321.59345  24668572.063    24668584.893    24668573.657
  -3578093.66549  -2777982.15147  19965330.477    19965339.929    19965332.465
 -12803724.45249  -9951988.10646  22955971.278    22955982.303    22955973.538
 -14303241.35649 -11123404.19447  20814579.499    20814590.723    20814581.695
   3641639.68549   2842334.40547  21110651.247    21110661.323    21110653.895
 98  4 15 16 31 29.9990000  0  8G19G 2G15G31G27G26G 7G13
   5704236.87949   4442571.40246  21984457.629    21984469.030    21984459.848
  -4653219.56449  -3617849.12147  20896479.405    20896489.229    20896481.199
 -10693637.72449  -8321152.23346  23440151.784    23440164.452    23440153.623
  11443449.68049   8908230.80345  24687354.488    24687367.113    24687355.832
  -3573417.84349  -2774338.68547  19966220.292    19966229.760    19966222.260
 -12871371.72849 -10004700.26046  22943098.444    22943109.418    22943100.731
 -14378442.87749 -11182002.75247  20800269.076    20800280.345    20800271.297
   3704850.47749   2891589.49947  21122679.992    21122689.996    21122682.587
 98  4 15 16 31 59.9990000  0  8G19G 2G15G31G27G26G 7G13
   5768432.45649   4492593.84946  21996673.697    21996685.096    21996675.911
  -4670154.44449  -3631045.14347  20893256.836    20893266.614    20893258.585
 -10743539.86249  -8360036.96546  23430655.819    23430668.382    23430657.534
  11542257.86249   8985224.09645  24706157.078    24706169.829    24706158.517
  -3568315.62449  -2770362.96047  19967191.258    19967200.740    19967193.225
 -12938602.95349 -10057088.22346  22930304.928    22930315.698    22930307.090
 -14453251.12849 -11240294.86247  20786033.553    20786044.806    20786035.741
   3768462.30049   2941157.08647  21134785.161    21134794.971    21134787.582
 98  4 15 16 32 29.9990000  0  8G19G 2G15G31G27G26G 7G13
   5832933.17549   4542854.06046  22008947.841    22008959.293    22008950.084
  -4686931.31449  -3644118.04447  20890064.405    20890074.094    20890066.083
 -10792989.27849  -8398568.92446  23421245.983    23421258.407    23421247.604
  11641173.13049   9062300.79745  24724979.831    24724992.950    24724981.564
  -3562786.35449  -2766054.46747  19968243.514    19968252.977    19968245.476
 -13005413.77449 -10109148.59146  22917591.322    22917602.020    22917593.456
 -14527661.42749 -11298276.88547  20771873.839    20771884.970    20771875.910
   3832470.26349   2991033.35247  21146965.581    21146975.319    21146967.956
 98  4 15 16 32 59.9990000  0  8G19G 2G15G31G27G26G 7G13
   5897734.74249   4593348.70346  22021279.329    22021290.727    22021281.478
  -4703538.27949  -3657058.55247  20886904.174    20886913.917    20886905.909
 -10841987.05549  -8436748.97646  23411922.136    23411934.394    23411923.641
  11740187.02249   9139454.34245  24743821.702    24743834.846    24743823.456
  -3556827.75049  -2761411.43247  19969377.496    19969386.918    19969379.397
 -13071787.51149 -10160868.38046  22904960.888    22904971.581    22904962.969
 -14601666.99149 -11355943.53347  20757791.083    20757802.112    20757793.100
   3896868.28649   3041213.56647  21159220.149    21159229.919    21159222.539
 98  4 15 16 33 29.9990000  0  8G19G 2G15G31G27G26G 7G13
   5962828.87549   4644071.32546  22033666.429    22033677.854    22033668.572
  -4719966.44349  -3669859.73647  20883778.028    20883787.755    20883779.746
 -10890529.65349  -8474574.32546  23402684.844    23402697.068    23402686.361
  11839284.59649   9216673.12745  24762679.384    24762692.570    24762681.173
  -3550440.48949  -2756434.37847  19970592.952    19970602.409    19970594.866
 -13137687.63849 -10212219.11946  22892420.381    22892431.189    22892422.616
 -14675270.59949 -11413296.96547  20743784.810    20743795.801    20743786.838
   3961646.14649   3091689.75447  21171547.052    21171556.792    21171549.431
 98  4 15 16 33 59.9990000  0  8G19G 2G15G31G27G26G 7G13
   6028196.38549   4695006.96346  22046105.520    22046117.008    22046107.692
  -4736220.05949  -3682524.91147  20880685.167    20880694.806    20880686.809
 -10938614.17649  -8512042.75446  23393534.728    23393546.890    23393536.254
  11938453.93249   9293947.82845  24781550.736    24781564.028    24781552.455
  -3543616.50349  -2751117.01247  19971891.523    19971900.998    19971893.444
 -13203111.36949 -10263198.64046  22879970.625    22879981.419    22879972.895
 -14748459.63149 -11470327.35147  20729857.350    20729868.364    20729859.433
   4026800.84849   3142459.59047  21183945.698    21183955.376    21183948.028
 98  4 15 16 34 29.9990000  0  8G19G 2G15G31G27G26G 7G13
   6093833.77049   4746152.88846  22058596.062    22058607.490    22058598.184
  -4752295.07749  -3695050.91547  20877626.152    20877635.850    20877627.842
 -10986232.75149  -8549148.09446  23384473.053    23384485.446    23384474.702
  12037704.46949   9371285.79445  24800438.063    24800450.994    24800439.218
  -3536343.37149  -2745449.66747  19973275.561    19973285.062    19973277.490
 -13268053.80949 -10313803.12546  22867612.293    22867623.269    22867614.742
 -14821205.07449 -11527012.08247  20716014.288    20716025.372    20716016.403
   4092344.96049   3193532.85847  21196418.375    21196428.052    21196420.712
 98  4 15 16 34 59.9990000  0  8G19G 2G15G31G27G26G 7G13
   6159732.85749   4797502.73946  22071136.355    22071147.735    22071138.450
  -4768209.57549  -3707451.84547  20874597.815    20874607.430    20874599.431
 -11033388.69449  -8585892.96246  23375499.393    23375511.932    23375501.174
  12137036.56549   9448687.30145  24819340.563    24819353.367    24819341.594
  -3528625.80249  -2739436.00447  19974744.223    19974753.666    19974746.086
 -13332527.89149 -10364042.65346  22855343.263    22855354.309    22855345.697
 -14893509.53649 -11583353.19547  20702255.223    20702266.295    20702257.314
   4158272.27649   3244904.72747  21208963.938    21208973.663    21208966.327
 98  4 15 16 35 29.9990000  0  8G19G 2G15G31G27G26G 7G13
   6225892.74549   4849055.81746  22083726.072    22083737.639    22083728.324
  -4783973.94349  -3719735.79247  20871597.948    20871607.539    20871599.555
 -11080071.28049  -8622268.98346  23366616.120    23366628.522    23366617.743
  12236457.86849   9526158.35345  24838259.995    24838272.694    24838260.871
  -3520449.95149  -2733065.24347  19976300.092    19976309.525    19976301.942
 -13396534.90449 -10413918.23246  22843163.127    22843174.180    22843165.579
 -14965369.64749 -11639348.05847  20688580.686    20688591.743    20688582.763
   4224586.98849   3296578.45947  21221583.295    21221593.000    21221585.633
 98  4 15 16 35 59.9990000  0  8G19G 2G15G31G27G26G 7G13
   6292331.66149   4900826.31746  22096368.897    22096380.646    22096371.229
  -4799589.82749  -3731904.03247  20868626.323    20868635.940    20868627.951
 -11126282.69849  -8658277.86946  23357822.581    23357834.762    23357824.086
  12335969.36149   9603699.70245  24857196.564    24857209.134    24857197.406
  -3511818.07049  -2726339.12747  19977942.731    19977952.155    19977944.582
 -13460097.82049 -10463447.77446  22831067.662    22831078.521    22831069.962
 -15036780.03349 -11694992.49047  20674991.790    20675002.760    20674993.817
   4291289.31249   3348554.22647  21234276.336    21234286.084    21234278.697
 98  4 15 16 36 29.9990000  0  7G19G 2G15G27G26G 7G13
   6359064.34449   4952825.72246  22109067.605    22109079.558    22109070.075
  -4815052.50149  -3743952.88647  20865683.917    20865693.522    20865685.534
 -11172023.40749  -8693919.97046  23349118.509    23349130.577    23349119.871
  -3502733.30649  -2719260.11347  19979671.456    19979680.967    19979673.375
 -13523204.50149 -10512621.79646  22819058.937    22819069.674    22819061.174
 -15107753.16849 -11750296.20347  20661486.075    20661496.989    20661488.085
   4358379.40249   3400832.15547  21247043.197    21247052.984    21247045.551
 98  4 15 16 36 59.9990000  0  7G19G 2G15G27G26G 7G13
   6426112.31049   5005070.80646  22121826.570    22121838.430    22121828.911
  -4830334.94849  -3755861.30847  20862775.732    20862785.383    20862777.391
 -11217267.17549  -8729174.85246  23340508.803    23340520.988    23340510.259
  -3493171.13349  -2711809.09347  19981491.105    19981500.611    19981493.038
 -13585827.32149 -10561418.79246  22807142.188    22807152.852    22807144.453
 -15178272.51349 -11805246.31747  20648066.697    20648077.576    20648068.712
   4425861.69649   3453415.69247  21259884.598    21259894.519    21259887.033
 98  4 15 16 37 29.9990000  0  7G19G 2G15G27G26G 7G13
   6493462.43949   5057551.33746  22134642.830    22134654.795    22134645.236
  -4845458.01549  -3767645.53247  20859897.900    20859907.572    20859899.603
 -11262042.74149  -8764064.91146  23331988.382    23332000.382    23331989.723
  -3483167.72549  -2704014.26047  19983394.798    19983404.257    19983396.677
 -13647985.45349 -10609853.68946  22795313.789    22795324.528    22795316.159
 -15248365.25049 -11859864.00347  20634728.530    20634739.340    20634730.510
   4493713.53249   3506287.18947  21272796.385    21272806.355    21272798.840
 98  4 15 16 37 59.9990000  0  7G19G 2G15G27G26G 7G13
   6561123.24149   5110273.95746  22147518.296    22147530.283    22147520.719
  -4860417.09449  -3779301.97447  20857051.322    20857060.967    20857053.007
 -11306347.33649  -8798587.99046  23323557.292    23323569.461    23323558.867
  -3472732.21849  -2695882.73147  19985380.640    19985390.067    19985382.519
 -13709678.85549 -10657926.45946  22783573.970    22783584.706    22783576.315
 -15318021.35149 -11914141.45647  20621473.460    20621484.179    20621475.385
   4561939.11749   3559449.91747  21285779.447    21285789.310    21285781.790
 98  4 15 16 38 29.9990000  0  7G19G 2G15G27G26G 7G13
   6629077.47549   5163225.21846  22160449.865    22160461.627    22160452.123
  -4875210.24849  -3790829.12647  20854236.209    20854245.958    20854237.974
 -11350168.15149  -8832734.08446  23315218.454    23315230.610    23315220.070
  -3461844.55849  -2687398.87247  19987452.523    19987461.964    19987454.374
 -13770896.81449 -10705628.75946  22771924.530    22771935.331    22771926.950
 -15387236.99849 -11968075.70147  20608302.026    20608312.862    20608304.026
   4630536.88549   3612902.65647  21298833.261    21298843.104    21298835.554
 98  4 15 16 38 59.9990000  0  7G19G 2G15G27G26G 7G13
   6697322.03449   5216402.69846  22173436.555    22173448.223    22173438.710
  -4889844.21449  -3802232.23347  20851451.525    20851461.221    20851453.235
 -11393508.14349  -8866505.51446  23306971.138    23306983.259    23306972.702
  -3450508.44649  -2678565.56647  19989609.677    19989619.191    19989611.550
 -13831652.83949 -10752971.10946  22760363.280    22760373.833    22760365.434
 -15456012.64249 -12021667.09047  20595214.367    20595225.246    20595216.389
   4699500.23249   3666640.26247  21311956.529    21311966.438    21311958.898
 98  4 15 16 39 29.9990000  0  7G19G 2G15G27G26G 7G13
   6765872.40349   5269818.48146  22186481.449    22186492.988    22186483.520
  -4904303.55549  -3813499.26747  20848699.994    20848709.691    20848701.704
 -11436353.19049  -8899891.28346  23298817.832    23298830.078    23298819.513
  -3438706.17449  -2669369.01747  19991855.529    19991865.127    19991857.459
 -13891935.42049 -10799944.55146  22748891.803    22748902.437    22748893.997
 -15524333.14449 -12074903.81947  20582213.307    20582224.286    20582215.392
   4768846.75849   3720676.44647  21325152.770    21325162.687    21325155.144
 98  4 15 16 39 59.9990000  0  7G19G 2G15G27G26G 7G13
   6834697.86249   5323448.61546  22199578.511    22199590.095    22199580.651
  -4918597.89049  -3824637.72047  20845979.859    20845989.594    20845981.603
 -11478708.27449  -8932895.26846  23290758.150    23290770.220    23290759.614
  -3426433.82349  -2659806.18047  19994190.853    19994200.516    19994192.813
 -13951767.05049 -10846566.60446  22737506.011    22737516.870    22737508.408
 -15592219.08949 -12127801.93447  20569294.992    20569306.020    20569297.084
   4838542.89749   3774985.06347  21338415.541    21338425.452    21338417.941
 98  4 15 16 40 29.9990000  0  7G19G 2G15G27G26G 7G13
   6903787.34149   5377284.47546  22212726.089    22212737.485    22212728.005
  -4932727.67249  -3835647.95447  20843291.057    20843300.856    20843292.800
 -11520573.45049  -8965517.50146  23282791.434    23282803.580    23282792.952
  -3413679.78349  -2649868.00247  19996617.818    19996627.577    19996619.823
 -14011140.86649 -10892831.92246  22726207.531    22726218.448    22726209.943
 -15659685.71149 -12180373.30147  20556456.402    20556467.571    20556458.594
   4908579.42449   3829558.91047  21351743.000    21351753.001    21351745.483
 98  4 15 16 40 59.9990000  0  7G19G 2G15G27G26G 7G13
   6973146.51749   5431330.48246  22225924.793    22225936.203    22225926.691
  -4946688.43649  -3846526.48047  20840634.379    20840644.224    20840636.170
 -11561945.18349  -8997755.24446  23274918.894    23274930.824    23274920.196
  -3400451.49049  -2639560.27847  19999135.148    19999144.880    19999137.125
 -14070035.37149 -10938723.74446  22714999.999    22715011.179    22715002.677
 -15726720.72149 -12232608.34947  20543700.052    20543711.261    20543702.237
   4978958.24649   3884399.47547  21365135.838    21365145.657    21365138.183
 98  4 15 16 41 29.9990000  0  7G19G 2G15G27G26G 7G13
   7042749.41749   5485566.41546  22239169.740    22239181.294    22239171.734
  -4960492.62349  -3857282.99947  20838007.574    20838017.365    20838009.337
 -11602820.35049  -9029606.03946  23267140.530    23267152.539    23267141.824
  -3386761.74449  -2628892.97547  20001740.253    20001749.992    20001742.245
 -14128442.24549 -10984235.59846  22703885.418    22703896.692    22703888.158
 -15793324.58149 -12284507.43347  20531025.788    20531036.966    20531027.920
   5049664.55349   3939495.22147  21378590.837    21378600.636    21378593.205
 98  4 15 16 41 59.9990000  0  7G19G 2G15G27G26G 7G13
   7112577.58949   5539977.88146  22252457.717    22252469.217    22252459.640
  -4974161.64049  -3867934.19047  20835406.422    20835416.231    20835408.215
 -11643206.35049  -9061075.64646  23259455.039    23259467.347    23259456.594
  -3372629.08249  -2617880.54147  20004429.606    20004439.379    20004431.613
 -14186358.89249 -11029365.45046  22692864.203    22692875.517    22692866.970
 -15859515.69949 -12336084.90347  20518430.048    20518441.176    20518432.162
   5120691.63649   3994840.93347  21392106.968    21392116.667    21392109.295
 98  4 15 16 42 29.9980000  0  7G19G 2G15G27G26G 7G13
   7182643.76149   5594574.79446  22265790.943    22265802.479    22265792.913
  -4987694.34349  -3878479.16647  20832831.234    20832841.066    20832833.029
 -11683094.06149  -9092156.99246  23251864.775    23251876.980    23251866.155
  -3358052.50649  -2606522.20647  20007203.480    20007213.235    20007205.477
 -14243762.21149 -11074095.31046  22681940.593    22681952.031    22681943.495
 -15925264.48749 -12387317.70047  20505918.343    20505929.544    20505920.533
   5192065.81149   4050457.10147  21405689.166    21405698.750    21405691.429
 98  4 15 16 42 59.9980000  0  7G19G 2G15G27G26G 7G13
   7252970.53249   5649374.77646  22279173.800    22279185.342    22279175.750
  -5001086.89049  -3888914.92947  20830282.706    20830292.587    20830284.514
 -11722474.85049  -9122843.32546  23244370.726    23244383.049    23244372.229
  -3343028.56949  -2594815.27647  20010062.416    20010072.235    20010064.426
 -14300653.02449 -11118425.81346  22671114.882    22671126.070    22671117.600
 -15990552.03749 -12438191.09247  20493494.549    20493505.728    20493496.712
   5263808.32049   4106360.28447  21419341.397    21419350.963    21419343.666
 98  4 15 16 43 29.9980000  0  7G19G 2G15G27G26G 7G13
   7323560.05749   5704379.49346  22292606.360    22292618.221    22292608.571
  -5014349.69549  -3899249.59847  20827758.884    20827768.756    20827760.694
 -11761352.12349  -9153137.30146  23236972.522    23236984.962    23236974.157
  -3327559.85749  -2582761.76947  20013006.030    20013015.848    20013008.059
 -14357049.72749 -11162371.29046  22660383.075    22660394.112    22660385.691
 -16055386.28549 -12488711.26247  20481156.983    20481168.157    20481159.133
   5335911.89449   4162544.81747  21433062.245    21433071.874    21433064.563
 98  4 15 16 43 59.9980000  0  7G19G 2G15G27G26G 7G13
   7394434.61549   5759606.32246  22306093.325    22306105.308    22306095.614
  -5027474.06549  -3909476.39047  20825261.397    20825271.239    20825263.197
 -11799734.02449  -9183045.26846  23229668.730    23229681.071    23229670.407
  -3311625.16449  -2570345.15447  20016038.296    20016048.142    20016040.359
 -14412968.83149 -11205944.61446  22649742.207    22649752.952    22649744.654
 -16119758.09349 -12538871.08647  20468907.346    20468918.561    20468909.537
   5408378.39849   4219012.15647  21446852.083    21446861.864    21446854.522
 98  4 15 16 44 29.9980000  0  7G19G 2G15G27G26G 7G13
   7465604.23949   5815063.06746  22319636.683    22319648.560    22319638.857
  -5040433.03149  -3919574.30447  20822795.387    20822805.239    20822797.189
 -11837614.16049  -9212562.24746  23222460.460    23222472.717    23222462.088
  -3295204.88349  -2557550.15447  20019163.055    20019172.858    20019165.071
 -14468408.18849 -11249144.10146  22639192.232    22639203.166    22639194.834
 -16183655.74349 -12588661.43947  20456747.925    20456759.198    20456750.199
   5481198.01849   4275754.64547  21460709.354    21460719.074    21460711.687
 98  4 15 16 44 59.9980000  0  7G19G 2G15G27G26G 7G13
   7537064.73749   5870746.45546  22333235.330    22333247.136    22333237.460
  -5053217.86449  -3929536.52947  20820362.556    20820372.402    20820364.346
 -11874994.34549  -9241689.64246  23215347.146    23215359.502    23215348.926
  -3278301.62849  -2544378.81447  20022379.564    20022389.474    20022381.654
 -14523371.81849 -11291972.90146  22628732.986    22628743.950    22628735.578
 -16247091.93849 -12638092.21147  20444676.465    20444687.672    20444678.716
   5554341.59349   4332749.56347  21474628.078    21474637.899    21474630.504
 98  4 15 16 45 29.9980000  0  7G19G 2G15G27G26G 7G13
   7608824.71549   5926663.22246  22346890.778    22346902.713    22346893.008
  -5065801.40549  -3939341.90247  20817968.075    20817977.833    20817969.847
 -11911859.00449  -9270415.34846  23208332.098    23208344.374    23208333.838
  -3260901.73849  -2530820.49247  20025690.748    20025700.610    20025692.791
 -14577843.97449 -11334418.73846  22618367.454    22618378.308    22618369.853
 -16310059.31949 -12687157.68347  20432694.245    20432705.320    20432696.408
   5627812.01649   4389999.16747  21488609.138    21488618.939    21488611.513
 98  4 15 16 45 59.9980000  0  7G19G 2G15G27G26G 7G13
   7680859.53049   5982794.14346  22360598.637    22360610.581    22360600.855
  -5078190.18949  -3948995.51847  20815610.564    20815620.334    20815612.356
 -11948218.66949  -9298747.52746  23201413.149    23201425.361    23201414.885
  -3243021.19249  -2516887.63347  20029093.534    20029103.229    20029095.417
 -14631831.43649 -11376486.87946  22608094.178    22608104.866    22608096.410
 -16372579.88749 -12735874.98447  20420797.011    20420808.017    20420799.179
   5701591.92149   4447489.93047  21502649.062    21502658.896    21502651.404
 98  4 15 16 46 29.9980000  0  7G19G 2G15G27G26G 7G13
   7753165.65349   6039136.46546  22374358.135    22374370.049    22374360.418
  -5090395.62349  -3958506.26547  20813287.989    20813297.731    20813289.756
 -11984057.97349  -9326674.26046  23194593.110    23194605.318    23194594.882
  -3224684.45749  -2502599.30747  20032583.002    20032592.626    20032584.853
 -14685319.27149 -11418165.71346  22597915.836    22597926.439    22597918.028
 -16434657.46549 -12784247.09847  20408984.088    20408995.029    20408986.206
   5775673.00949   4505215.38147  21516746.223    21516756.125    21516748.598
 98  4 15 16 46 59.9980000  0  7G19G 2G15G27G26G 7G13
   7825741.91049   6095689.27546  22388169.100    22388180.923    22388171.387
  -5102441.88749  -3967892.98247  20810995.754    20811005.431    20810997.468
 -12019374.59049  -9354193.69246  23187872.703    23187884.761    23187874.312
  -3205909.44249  -2487969.46347  20036155.846    20036165.432    20036157.645
 -14738309.18649 -11459456.55547  22587832.080    22587842.789    22587834.390
 -16496282.63749 -12832266.69347  20397257.272    20397268.125    20397259.331
   5850054.53249   4563174.93547  21530900.590    21530910.535    21530902.936
 98  4 15 16 47 29.9980000  0  7G19G 2G15G27G26G 7G13
   7898574.00649   6152441.44746  22402028.812    22402040.489    22402030.998
  -5114362.51649  -3977181.80647  20808727.406    20808736.984    20808729.063
 -12054175.83049  -9381311.53246  23181250.466    23181262.275    23181251.869
  -3186711.37649  -2473009.96847  20039809.215    20039818.747    20039810.971
 -14790803.62749 -11500361.31647  22577842.617    22577853.435    22577845.069
 -16557468.08349 -12879943.64347  20385614.063    20385624.868    20385616.109
   5924736.76349   4621368.79647  21545112.150    21545122.170    21545114.516
 98  4 15 16 47 59.9980000  0  7G19G 2G15G27G26G 7G13
   7971661.99349   6209393.01146  22415936.946    22415948.857    22415939.233
  -5126172.82649  -3986384.65847  20806480.025    20806489.560    20806481.672
 -12088458.54949  -9408025.35046  23174726.753    23174738.436    23174728.051
  -3167078.61049  -2457711.74647  20043545.168    20043554.748    20043546.958
 -14842801.55049 -11540879.17847  22567947.962    22567958.542    22567950.192
 -16618215.72449 -12927279.44347  20374054.258    20374064.930    20374056.208
   5999711.94449   4679790.94747  21559379.479    21559389.550    21559381.847
 98  4 15 16 48 29.9980000  0  7G19G 2G15G27G26G 7G13
   8045010.87149   6266547.86546  22429894.769    22429906.821    22429897.075
  -5137878.27149  -3995505.80347  20804252.536    20804262.082    20804254.210
 -12122219.93649  -9434332.91646  23168301.915    23168313.868    23168303.423
  -3146992.58749  -2442060.33447  20047367.377    20047377.005    20047369.168
 -14894303.07749 -11581010.23447  22558147.487    22558158.124    22558149.747
 -16678511.73749 -12974263.33047  20362580.254    20362590.946    20362582.269
   6074976.22949   4738438.35447  21573701.949    21573711.950    21573704.226
 98  4 15 16 48 59.9980000  0  7G19G 2G15G27G26G 7G13
   8118605.09949   6323893.90046  22443899.462    22443911.388    22443901.655
  -5149460.83049  -4004531.19147  20802048.492    20802058.003    20802050.149
 -12155466.32449  -9460239.21346  23161975.269    23161987.291    23161976.860
  -3126434.89349  -2426041.38547  20051279.381    20051289.012    20051281.187
 -14945303.04549 -11620750.47347  22548442.381    22548453.107    22548444.808
 -16738357.90149 -13020896.68247  20351191.949    20351202.627    20351193.936
   6150540.05849   4797319.18647  21588081.399    21588091.346    21588083.630
 98  4 15 16 49 29.9980000  0  7G19G 2G15G27G26G 7G13
   8192455.16949   6381439.29346  22457952.782    22457964.642    22457954.891
  -5160902.71849  -4013446.96147  20799871.248    20799880.699    20799872.850
 -12188189.71649  -9485737.96946  23155748.013    23155760.247    23155749.796
  -3105386.36349  -2409639.97047  20055284.801    20055294.407    20055286.596
 -14995786.45549 -11660088.19747  22538835.833    22538846.465    22538838.192
 -16797757.84749 -13067182.33547  20339888.595    20339899.184    20339890.485
   6226413.32649   4856441.13747  21602519.666    21602529.642    21602521.942
 98  4 15 16 49 59.9980000  0  7G19G 2G15G27G26G 7G13
   8266567.11449   6439188.74046  22472055.713    22472067.766    22472057.911
  -5172184.73849  -4022238.15947  20797724.368    20797733.800    20797725.976
 -12220390.12649  -9510829.21946  23149620.531    23149632.686    23149622.261
  -3083840.51749  -2392851.04447  20059384.859    20059394.470    20059386.676
 -15045760.50749 -11699029.01647  22529326.345    22529336.726    22529328.482
 -16856701.39249 -13113112.34847  20328672.014    20328682.599    20328673.875
   6302584.49349   4915795.21547  21617014.652    21617024.617    21617016.923
 98  4 15 16 50 29.9980000  0  7G19G 2G15G27G26G 7G13
   8340952.28049   6497151.09546  22486210.661    22486222.959    22486213.014
  -5183280.18549  -4030883.98147  20795612.933    20795622.426    20795614.579
 -12252054.08349  -9535502.44446  23143595.469    23143607.198    23143596.903
  -3061810.40249  -2375684.75847  20063577.024    20063586.701    20063578.906
 -15095201.79549 -11737554.69147  22519918.055    22519928.339    22519920.133
 -16915166.65249 -13158669.67647  20317546.333    20317557.018    20317548.291
   6379069.46849   4975393.81047  21631569.400    21631579.328    21631571.605
 98  4 15 16 50 59.9980000  0  7G19G 2G15G27G26G 7G13
   8415599.57049   6555317.68846  22500415.522    22500428.014    22500417.990
  -5194198.25849  -4039391.58847  20793535.298    20793544.824    20793536.919
 -12283194.06749  -9559767.38646  23137669.833    23137681.469    23137671.165
  -3039329.31249  -2358167.06847  20067855.041    20067864.772    20067856.956
 -15144130.75349 -11775681.15947  22510607.077    22510617.400    22510609.255
 -16973172.77749 -13203869.23547  20306508.112    20306518.834    20306510.073
   6455858.47949   5035229.32847  21646181.809    21646191.900    21646184.128
 98  4 15 16 51 29.9980000  0  7G19G 2G15G27G26G 7G13
   8490510.93449   6613690.05946  22514670.687    22514683.303    22514673.194
  -5204956.34849  -4047774.52947  20791488.005    20791497.636    20791489.696
 -12313806.91049  -9583621.55646  23131843.993    23131856.111    23131845.703
  -3016396.42849  -2340297.32747  20072219.012    20072228.820    20072220.973
 -15192567.34449 -11813423.95347  22501389.910    22501400.210    22501392.043
 -17030721.19549 -13248712.13847  20295556.905    20295567.726    20295558.944
   6532949.20849   5095299.94447  21660851.754    21660861.903    21660854.055
 98  4 15 16 51 59.9980000  0  7G19G 2G15G27G26G 7G13
   8565671.09749   6672256.29246  22528973.335    22528985.871    22528975.762
  -5215557.42649  -4056035.12647  20789470.624    20789480.321    20789472.352
 -12343895.96149  -9607067.61146  23126118.370    23126130.364    23126119.952
  -2993022.93349  -2322084.25947  20076666.903    20076676.712    20076668.834
 -15240533.67049 -11850800.31947  22492262.038    22492272.536    22492264.330
 -17087814.41249 -13293200.33947  20284692.181    20284703.231    20284694.417
   6610334.60549   5155600.17347  21675577.589    21675587.966    21675580.027
 98  4 15 16 52 29.9980000  0  7G19G 2G15G27G26G 7G13
   8641073.98349   6731011.66446  22543322.097    22543334.711    22543324.555
  -5226006.31949  -4064177.13847  20787482.275    20787491.966    20787483.969
 -12373460.35649  -9630104.82946  23120492.251    23120504.439    23120493.914
  -2969211.35749  -2303529.82947  20081198.125    20081207.970    20081200.053
 -15288040.42449 -11887818.56547  22483221.931    22483232.372    22483224.102
 -17144458.97949 -13337338.94247  20273913.058    20273924.069    20273915.240
   6688012.03049   5216127.94547  21690359.150    21690369.583    21690361.536
 98  4 15 16 52 59.9980000  0  7G19G 2G15G27G26G 7G13
   8716729.74849   6789964.08146  22557718.874    22557731.666    22557721.496
  -5236304.13949  -4072201.43047  20785522.566    20785532.383    20785524.361
 -12402490.09149  -9652725.41846  23114968.133    23114980.251    23114969.769
  -2944934.89149  -2284613.14647  20085817.843    20085827.707    20085819.741
 -15335080.97549 -11924473.54547  22474270.350    22474280.940    22474272.583
 -17200643.06449 -13381118.73047  20263221.497    20263232.550    20263223.709
   6765984.36949   5276885.52547  21705196.642    21705207.315    21705199.225
 98  4 15 16 53 29.9980000  0  7G19G 2G15G27G26G 7G13
   8792649.73249   6849122.38746  22572165.974    22572178.920    22572168.659
  -5246442.39049  -4080101.38247  20783593.388    20783603.140    20783595.134
 -12430970.16349  -9674917.70146  23109548.420    23109560.681    23109550.233
  -2920177.08849  -2265321.39747  20090529.081    20090538.997    20090531.020
 -15381630.01149 -11960745.52747  22465412.295    22465423.033    22465414.572
 -17256349.23849 -13424526.11947  20252620.971    20252631.997    20252623.161
   6844251.27949   5337872.64447  21720090.391    21720101.132    21720092.991
 98  4 15 16 53 59.9980000  0  7G19G 2G15G27G26G 7G13
   8868831.54149   6908484.69946  22586662.916    22586675.997    22586665.634
  -5256419.65649  -4087875.89447  20781694.853    20781704.557    20781696.551
 -12458912.60849  -9696691.05546  23104231.061    23104243.396    23104232.909
  -2894962.20949  -2245673.48447  20095327.382    20095337.275    20095329.296
 -15427675.50149 -11996625.13347  22456650.161    22456660.901    22456652.377
 -17311580.90149 -13467563.75847  20242110.820    20242121.771    20242112.934
   6922777.25549   5399061.62947  21735033.553    21735044.212    21735036.087
 98  4 15 16 54 29.9980000  0  7G19G 2G15G27G26G 7G13
   8945272.04149   6968048.60646  22601209.119    22601222.226    22601211.863
  -5266236.54749  -4095525.44047  20779826.736    20779836.481    20779828.469
 -12486317.73449  -9718045.72646  23099015.962    23099028.413    23099017.941
  -2869285.44949  -2225665.66947  20100213.561    20100223.421    20100215.451
 -15473194.59549 -12032094.55747  22447988.181    22447998.895    22447990.414
 -17366331.79549 -13510226.77147  20231692.072    20231703.015    20231694.203
   7001559.04549   5460449.95446  21750025.325    21750035.980    21750027.876
 98  4 15 16 54 59.9980000  0  7G19G 2G15G27G26G 7G13
   9021961.90049   7027806.80246  22615803.027    22615815.891    22615805.515
  -5275888.95649  -4103046.81647  20777989.956    20777999.722    20777991.701
 -12513180.84149  -9738978.04646  23093904.146    23093916.517    23093906.080
  -2843139.05449  -2205291.90047  20105189.076    20105198.942    20105190.966
 -15518161.88249 -12067133.99847  22439431.211    22439441.845    22439433.471
 -17420599.67549 -13552513.41447  20221365.324    20221376.133    20221367.372
   7080609.23549   5522047.41747  21765068.126    21765078.818    21765070.733
 98  4 15 16 55 29.9980000  0  7G19G 2G15G27G26G 7G13
   9098902.45549   7087760.35546  22630444.566    22630457.343    22630446.936
  -5285365.55449  -4110431.19647  20776186.655    20776196.407    20776188.402
 -12539495.54749  -9759483.01946  23088896.886    23088909.040    23088898.603
  -2816510.61749  -2184542.51647  20110256.336    20110266.212    20110258.229
 -15562570.06449 -12101737.77347  22430980.724    22430991.118    22430982.864
 -17474385.17749 -13594424.17447  20211130.290    20211141.023    20211132.326
   7159935.40749   5583859.92946  21780163.695    21780174.137    21780166.124
 98  4 15 16 55 59.9980000  0  7G19G 2G15G27G26G 7G13
   9176085.40449   7147902.79146  22645132.064    22645144.938    22645134.521
  -5294657.46849  -4117671.66647  20774418.551    20774428.251    20774420.227
 -12565264.75249  -9779562.92646  23083993.329    23084005.375    23083994.928
  -2789401.30649  -2163418.42447  20115415.140    20115424.980    20115416.992
 -15606419.82949 -12135906.42147  22422636.336    22422646.726    22422638.498
 -17527702.36449 -13635970.01547  20200984.436    20200995.092    20200986.423
   7239540.16649   5645889.52046  21795312.261    21795322.473    21795314.505
 98  4 15 16 56 29.9980000  0  7G19G 2G15G27G26G 7G13
   9253505.03349   7208229.63746  22659864.786    22659877.502    22659867.107
  -5303783.00549  -4124782.49247  20772682.083    20772691.748    20772683.734
 -12590486.52549  -9799216.25946  23079193.600    23079205.895    23079195.299
  -2761804.22949  -2141914.25147  20120666.720    20120676.579    20120668.567
 -15649725.38249 -12169651.01547  22414395.555    22414405.938    22414397.721
 -17580563.81649 -13677160.73547  20190925.302    20190935.852    20190927.219
   7319428.69849   5708140.23547  21810514.530    21810524.817    21810516.832
 98  4 15 16 56 59.9980000  0  7G19G 2G15G27G26G 7G13
   9331169.15849   7268747.01046  22674644.011    22674656.647    22674646.254
  -5312762.44949  -4131779.48047  20770973.348    20770982.995    20770975.031
 -12615163.70849  -9818445.24746  23074497.868    23074510.039    23074499.332
  -2733726.92549  -2120035.87747  20126009.719    20126019.546    20126011.537
 -15692510.74749 -12202990.26347  22406253.607    22406264.133    22406255.893
 -17632972.82149 -13717998.90447  20180952.197    20180962.734    20180954.107
   7399582.98349   5770598.02646  21825767.252    21825777.730    21825769.714
 98  4 15 16 57 29.9980000  0  7G19G 2G15G27G26G 7G13
   9409090.22349   7329464.59646  22689471.969    22689484.612    22689474.158
  -5321601.39349  -4138666.98547  20769291.335    20769300.990    20769293.028
 -12639291.60649  -9837246.21146  23069906.406    23069918.702    23069907.908
  -2705170.60349  -2097784.24747  20131443.743    20131453.673    20131445.624
 -15734785.67949 -12235931.77747  22398208.979    22398219.509    22398211.220
 -17684927.94949 -13758483.40247  20171065.393    20171075.998    20171067.325
   7479982.82049   5833247.16346  21841066.863    21841077.378    21841069.279
 98  4 15 16 57 59.9980000  0  7G19G 2G15G27G26G 7G13
   9487254.05749   7390371.35946  22704345.649    22704358.856    22704348.211
  -5330320.02149  -4145460.74047  20767632.172    20767641.903    20767633.930
 -12662871.03549  -9855619.78546  23065419.428    23065431.763    23065420.824
  -2676149.98349  -2075170.82247  20136966.145    20136976.169    20136968.051
 -15776556.64349 -12268480.58347  22390260.280    22390270.863    22390262.514
 -17736423.49949 -13798609.78747  20161266.040    20161276.727    20161268.019
   7560617.34349   5896079.16246  21856411.037    21856421.691    21856413.567
 98  4 15 16 58 29.9980000  0  7G19G 2G15G27G26G 7G13
   9565659.59849   7451466.44646  22719265.725    22719279.020    22719268.340
  -5338934.65549  -4152173.46247  20765992.898    20766002.635    20765994.638
 -12685898.59049  -9873563.32446  23061037.283    23061049.725    23061038.885
  -2646659.28449  -2052191.10247  20142577.975    20142588.111    20142579.937
 -15817827.92749 -12300640.03647  22382406.438    22382417.258    22382408.880
 -17787441.98949 -13838364.43747  20151557.424    20151568.216    20151559.490
   7641476.82649   5959086.45846  21871798.072    21871808.798    21871800.680
 98  4 15 16 58 59.9980000  0  7G19G 2G15G27G26G 7G13
   9644298.96049   7512743.74346  22734230.017    22734243.692    22734232.957
  -5347438.51549  -4158799.86547  20764374.626    20764384.415    20764376.421
 -12708380.74249  -9891081.88946  23056759.373    23056771.441    23056760.756
  -2616706.73349  -2028851.49947  20148277.738    20148287.951    20148279.757
 -15858598.44849 -12332409.28747  22374648.050    22374658.906    22374650.522
 -17837987.49149 -13877750.52947  20141938.780    20141949.656    20141940.925
   7722557.66549   6022266.23546  21887227.451    21887238.051    21887229.944
 98  4 15 16 59 29.9980000  0  7G19G 2G15G27G26G 7G13
   9723167.62549   7574199.71846  22749238.456    22749252.039    22749241.307
  -5355812.09649  -4165324.75047  20762781.199    20762790.959    20762782.953
 -12730314.53549  -9908173.15746  23052585.546    23052597.550    23052586.941
  -2586298.61649  -2005156.90347  20154064.228    20154074.456    20154066.263
 -15898848.89149 -12363773.27047  22366988.651    22366999.510    22366991.157
 -17888068.72849 -13916774.85147  20132408.548    20132419.478    20132410.743
   7803872.17849   6085628.10346  21902701.188    21902711.768    21902703.664
 98  4 15 16 59 59.9980000  0  7G19G 2G15G27G26G 7G13
   9802280.49949   7635845.97746  22764293.425    22764306.824    22764296.136
  -5364037.56249  -4171734.22447  20761215.889    20761225.723    20761217.720
 -12751688.89149  -9924828.50646  23048518.221    23048530.093    23048519.522
  -2555432.96349  -1981105.79147  20159937.788    20159948.046    20159939.864
 -15938564.09949 -12394720.19847  22359431.214    22359441.916    22359433.637
 -17937668.50449 -13955424.01447  20122969.998    20122980.960    20122972.227
   7885446.13049   6149192.13046  21918224.144    21918234.864    21918226.770
 98  4 15 17  0 29.9980000  0  7G19G 2G15G27G26G 7G13
   9881658.31649   7697698.68246  22779398.590    22779412.025    22779401.346
  -5372095.52749  -4178013.18047  20759682.458    20759692.368    20759684.349
 -12772505.89649  -9941049.56646  23044556.575    23044568.742    23044558.168
  -2524112.54849  -1956700.31947  20165897.901    20165908.189    20165899.995
 -15977753.39749 -12425257.31847  22351973.703    22351984.401    22351976.093
 -17986789.41449 -13993700.03647  20113622.563    20113633.525    20113624.843
   7967278.62649   6212957.62846  21933796.463    21933807.164    21933799.020
 98  4 15 17  0 59.9980000  0  7G19G 2G15G27G26G 7G13
   9961298.12349   7759755.54346  22794553.985    22794567.151    22794556.484
  -5379977.37949  -4184154.90247  20758182.494    20758192.509    20758184.473
 -12792772.25849  -9956841.53346  23040699.659    23040712.181    23040701.564
  -2492353.70549  -1931953.20947  20171941.381    20171951.719    20171943.517
 -16016419.56649 -12455386.80247  22344615.558    22344626.422    22344618.056
 -18035443.08249 -14031611.96947  20104364.152    20104375.028    20104366.402
   8049367.16649   6276922.62746  21949417.576    21949428.197    21949420.007
 98  4 15 17  1 29.9980000  0  7G19G 2G15G27G26G 7G13
  10041179.79149   7822000.85946  22809755.202    22809768.319    22809757.609
  -5387692.65249  -4190166.82347  20756714.418    20756724.356    20756716.303
 -12812487.50549  -9972204.05146  23036947.596    23036960.502    23036949.817
  -2460159.09349  -1906866.54047  20178067.855    20178078.180    20178070.007
 -16054569.24449 -12485113.82847  22337355.708    22337366.793    22337358.409
 -18083622.95749 -14069154.71647  20095195.915    20095206.677    20095198.085
   8131705.30849   6341082.12646  21965086.131    21965096.726    21965088.464
 98  4 15 17  1 59.9980000  0  7G19G 2G15G27G26G 7G13
  10121301.61849   7884433.29946  22825002.123    22825015.185    22825004.441
  -5395248.53149  -4196054.53747  20755276.597    20755286.524    20755278.456
 -12831641.51449  -9987129.26746  23033302.492    23033315.663    23033304.882
  -2427505.27949  -1881422.05447  20184281.753    20184292.014    20184283.892
 -16092206.56949 -12514441.62447  22330193.629    22330204.657    22330196.275
 -18131306.04649 -14106310.35947  20086121.999    20086132.851    20086124.276
   8214289.66149   6405433.46946  21980801.372    21980812.143    21980803.805
 98  4 15 17  2 29.9980000  0  7G19G 2G15G27G26G 7G13
  10201651.31049   7947043.30246  22840292.393    22840305.425    22840294.614
  -5402650.74849  -4201822.51247  20753868.052    20753877.951    20753869.890
 -12850237.89249 -10001619.95846  23029763.825    23029776.928    23029766.097
  -2394380.84549  -1855610.84747  20190585.171    20190595.409    20190587.303
 -16129333.51749 -12543371.71447  22323128.657    22323139.616    22323131.229
 -18178509.88649 -14143092.56247  20077139.391    20077150.224    20077141.641
   8297097.47849   6469958.94946  21996559.123    21996570.066    21996561.655
 98  4 15 17  2 59.9980000  0  7G19G 2G15G27G26G 7G13
  10282202.63849   8009810.42546  22855620.832    22855633.969    22855623.154
  -5409922.30349  -4207488.68147  20752484.290    20752494.258    20752486.171
 -12868275.78949 -10015675.47546  23026331.847    23026344.425    23026333.588
  -2360784.65149  -1829432.03847  20196978.358    20196988.589    20196980.474
 -16165934.98049 -12571892.35147  22316163.675    22316174.562    22316166.203
 -18225245.68449 -14179510.05447  20068245.859    20068256.733    20068248.111
   8380120.40649   6534652.05146  22012357.881    22012368.917    22012360.421
 98  4 15 17  3 29.9980000  0  7G19G 2G15G27G26G 7G13
  10362951.25949   8072731.27346  22870986.782    22871000.072    22870989.135
  -5417073.43849  -4213061.01147  20751123.486    20751133.467    20751125.340
 -12885754.56649 -10029295.29846  23023005.641    23023018.375    23023007.458
  -2326712.56249  -1802882.40247  20203462.097    20203472.352    20203464.193
 -16202016.55949 -12600007.87147  22309297.647    22309308.448    22309300.085
 -18271516.83549 -14215565.48847  20059440.738    20059451.635    20059442.979
   8463344.86449   6599502.17646  22028194.941    22028206.082    22028197.518
 98  4 15 17  3 59.9980000  0  7G19G 2G15G27G26G 7G13
  10443925.82749   8135828.19146  22886395.857    22886409.117    22886398.315
  -5424096.56349  -4218533.59947  20749787.018    20749797.021    20749788.894
 -12902671.61649 -10042477.44146  23019786.405    23019799.135    23019788.203
  -2292153.01849  -1775952.93047  20210038.542    20210048.856    20210040.657
 -16237566.43749 -12627709.08447  22302532.714    22302543.588    22302535.200
 -18317322.99649 -14251258.59247  20050724.074    20050735.047    20050726.354
   8546769.36049   6664508.16946  22044070.096    22044081.329    22044072.725
 98  4 15 17  4 29.9980000  0  7G19G 2G15G27G26G 7G13
  10525124.24049   8199099.51446  22901847.578    22901860.860    22901849.997
  -5430982.48349  -4223899.27247  20748476.666    20748486.682    20748478.536
 -12919031.51349 -10055225.44046  23016673.140    23016685.959    23016675.065
  -2257120.47449  -1748654.89047  20216705.052    20216715.349    20216707.128
 -16272583.78749 -12654995.33647  22295869.138    22295880.047    22295871.657
 -18362677.73449 -14286599.93647  20042093.372    20042104.330    20042095.633
   8630386.92249   6729664.60746  22059982.065    22059993.324    22059984.682
 98  4 15 17  4 59.9980000  0  7G19G 2G15G27G26G 7G13
  10606545.51549   8262544.51746  22917341.801    22917354.927    22917344.095
  -5437732.62849  -4229159.15047  20747192.237    20747202.194    20747194.051
 -12934826.35149 -10067533.12246  23013667.635    23013680.283    23013669.480
  -2221619.23349  -1720991.63447  20223460.772    20223471.079    20223462.833
 -16307060.95849 -12681860.67447  22289308.341    22289319.277    22289310.883
 -18407562.07049 -14321574.73347  20033552.183    20033563.108    20033554.440
   8714213.71449   6794984.08146  22075933.767    22075945.163    22075936.457
 98  4 15 17  5 29.9980000  0  7G19G 2G15G27G26G 7G13
  10688191.83149   8326164.87246  22932878.661    22932891.873    22932880.962
  -5444334.72849  -4234303.66747  20745935.886    20745945.858    20745937.750
 -12950058.24349 -10079402.14546  23010768.964    23010781.783    23010770.952
  -2185643.09549  -1692958.32647  20230306.848    20230317.188    20230308.932
 -16341013.90649 -12708317.52547  22282847.477    22282858.215    22282849.811
 -18451975.22849 -14356182.37647  20025100.733    20025111.544    20025102.909
   8798247.91949   6860465.17546  22091924.830    22091936.468    22091927.688
 98  4 15 17  5 59.9980000  0  7G19G 2G15G27G26G 7G13
  10770052.12749   8389951.95646  22948456.403    22948469.533    22948458.540
  -5450786.59249  -4239331.11647  20744708.145    20744718.103    20744710.034
 -12964731.95149 -10090836.22746  23007976.632    23007989.498    23007978.691
  -2149200.54449  -1664561.58547  20237241.647    20237252.038    20237243.750
 -16374438.75749 -12734362.87147  22276487.056    22276497.680    22276489.272
 -18495916.27849 -14390422.14147  20016739.009    20016749.810    20016741.185
   8882490.47849   6926108.62646  22107955.763    22107967.418    22107958.582
 98  4 15 17  6 29.9980000  0  7G19G 2G15G27G26G 7G13
  10852122.69449   8453902.88246  22964073.968    22964087.251    22964076.114
  -5457073.38249  -4244229.93647  20743511.782    20743521.799    20743513.730
 -12978836.64449 -10101826.91346  23005292.311    23005305.445    23005294.631
  -2112295.88849  -1635804.76147  20244264.398    20244274.822    20244266.501
 -16407335.65049 -12759996.82147  22270226.812    22270237.644    22270229.201
 -18539378.97849 -14424289.16347  20008468.274    20008479.089    20008470.466
   8966953.33049   6991923.73346  22124028.626    22124040.282    22124031.424
 98  4 15 17  6 59.9980000  0  7G19G 2G15G27G26G 7G13
  10934401.46249   8518016.05346  22979730.793    22979744.583    22979733.334
  -5463207.81749  -4249010.03947  20742344.488    20742354.482    20742346.421
 -12992380.35149 -10112380.48146  23002715.414    23002728.193    23002717.362
  -2074932.79049  -1606690.71047  20251374.336    20251384.837    20251376.469
 -16439718.69749 -12785230.36747  22264064.676    22264075.372    22264066.926
 -18582375.30149 -14457792.78047  20000286.312    20000297.108    20000288.488
   9051629.38649   7057904.95646  22140142.061    22140153.716    22140144.834
 98  4 15 17  7 29.9980000  0  7G19G 2G15G27G26G 7G13
  11016908.96949   8582307.45746  22995431.201    22995445.338    22995433.980
  -5469165.47149  -4253652.39447  20741210.827    20741220.799    20741212.744
 -13005357.68049 -10122492.72046  23000245.968    23000258.686    23000247.876
  -2037107.20149  -1577216.27547  20258572.356    20258582.868    20258574.502
 -16471582.98349 -12810059.68847  22258001.044    22258011.888    22258003.357
 -18624894.80849 -14490924.85047  19992195.083    19992205.902    19992197.306
   9136514.10949   7124048.78046  22156295.217    22156306.845    22156298.004
 98  4 15 17  7 59.9980000  0  7G19G 2G15G27G26G 7G13
  11099653.52149   8646783.57146  23011177.049    23011191.257    23011179.852
  -5474954.28149  -4258163.17847  20740109.207    20740119.224    20740111.158
 -13017768.82049 -10132163.76346  22997884.521    22997896.919    22997886.132
  -1998829.03749  -1547389.18547  20265856.508    20265867.024    20265858.672
 -16502918.95649 -12834477.34047  22252038.178    22252048.862    22252040.348
 -18666934.84249 -14523683.30447  19984195.164    19984205.939    19984197.379
   9221602.18249   7190351.07246  22172487.122    22172498.662    22172489.863
 98  4 15 17  8 29.9980000  0  7G19G 2G15G27G26G 7G13
  11182647.92849   8711454.36346  23026970.609    23026984.689    23026973.268
  -5480577.93049  -4262545.26547  20739039.107    20739049.102    20739040.995
 -13029603.78349 -10141385.84346  22995632.250    22995644.834    22995634.110
  -1960089.36349  -1517202.47347  20273228.467    20273238.988    20273230.649
 -16533718.13249 -12858476.70547  22246177.051    22246187.932    22246179.427
 -18708494.02449 -14556067.06847  19976286.733    19976297.479    19976288.945
   9306896.08149   7256813.73746  22188718.124    22188729.632    22188720.858
 98  4 15 17  8 59.9980000  0  7G19G 2G15G27G26G 7G13
  11265873.80149   8776305.54346  23042808.132    23042822.143    23042810.689
  -5486047.06749  -4266806.95147  20737998.349    20738008.419    20738000.289
 -13040869.94949 -10150164.69346  22993488.325    22993500.976    22993490.286
  -1920892.70249  -1486659.67147  20280687.447    20280697.903    20280689.574
 -16563978.41249 -12882056.15647  22240418.686    22240429.569    22240421.083
 -18749572.25949 -14588076.06747  19968469.881    19968480.537    19968472.034
   9392374.09249   7323419.86846  22204984.126    22204995.641    22204986.846
 98  4 15 17  9 29.9980000  0  7G19G 2G15G27G26G 7G13
  11349318.93349   8841327.54646  23058687.044    23058701.354    23058689.869
  -5491355.33349  -4270943.27947  20736988.282    20736998.322    20736990.206
 -13051565.37549 -10158498.83446  22991453.510    22991465.757    22991455.136
  -1881245.36649  -1455765.69647  20288232.191    20288242.590    20288234.254
 -16593682.82249 -12905202.45747  22234766.060    22234777.009    22234768.502
 -18790161.92049 -14619704.35947  19960745.866    19960756.592    19960748.095
   9478028.53749   7390163.48046  22221283.770    22221295.203    22221286.404
 98  4 15 17  9 59.9980000  0  7G19G 2G15G27G26G 7G13
  11432954.87249   8906498.24546  23074602.696    23074616.918    23074605.471
  -5496528.86049  -4274974.62347  20736003.817    20736013.850    20736005.729
 -13061700.34749 -10166396.25146  22989525.190    22989537.163    22989526.531
  -1841151.74349  -1424523.95647  20295861.815    20295872.210    20295863.853
 -16622849.98949 -12927930.12647  22229215.765    22229226.720    22229218.224
 -18830287.98149 -14650971.40447  19953110.131    19953120.857    19953112.348
   9563842.30849   7457031.23746  22237613.734    22237625.131    22237616.302
 98  4 15 17 10 29.9980000  0  7G19G 2G15G27G26G 7G13
  11516783.32649   8971818.94846  23090554.901    23090569.059    23090557.666
  -5501548.89249  -4278886.35947  20735048.531    20735058.590    20735050.456
 -13071260.16949 -10173845.49446  22987706.154    22987718.041    22987707.384
  -1800601.21949  -1392926.19147  20303578.352    20303588.773    20303580.396
 -16651481.14749 -12950240.12747  22223767.539    22223778.442    22223769.947
 -18869939.50149 -14681868.68147  19945564.634    19945575.419    19945566.891
   9649822.49349   7524028.65846  22253975.422    22253986.734    22253977.882
 98  4 15 17 10 59.9980000  0  7G19G 2G15G27G26G 7G13
  11600799.57949   9037285.98746  23106542.730    23106556.941    23106545.565
  -5506405.34549  -4282670.62747  20734124.426    20734134.471    20734126.355
 -13080246.47849 -10180847.83946  22985995.590    22986008.079    22985997.285
  -1759587.55249  -1360967.53847  20311383.031    20311393.456    20311385.073
 -16679588.26749 -12972141.78247  22218419.018    22218429.890    22218421.376
 -18909118.41649 -14712397.69147  19938109.197    19938119.908    19938111.375
   9735954.64049   7591144.48946  22270365.882    22270377.227    22270368.382
 98  4 15 17 11 29.9980000  0  7G19G 2G15G27G26G 7G13
  11685007.02849   9102902.02046  23122567.038    23122581.230    23122569.850
  -5511130.53149  -4286352.61447  20733225.324    20733235.333    20733227.223
 -13088664.95849 -10187407.72046  22984393.353    22984406.095    22984395.263
  -1718106.08549  -1328644.36347  20319276.686    20319287.158    20319278.774
 -16707188.33949 -12993648.34047  22213166.887    22213177.765    22213169.271
 -18947830.31249 -14742562.79047  19930742.620    19930753.273    19930744.725
   9822241.87849   7658381.17246  22286785.701    22286797.201    22286788.375
 98  4 15 17 11 59.9980000  0  7G19G 2G15G27G26G 7G13
  11769426.23149   9168683.03646  23138631.754    23138645.884    23138634.470
  -5515744.98849  -4289948.32047  20732347.180    20732357.250    20732349.125
 -13096507.46449 -10193518.78846  22982901.173    22982913.717    22982902.922
  -1676147.21249  -1295949.18547  20327261.244    20327271.715    20327263.291
 -16734297.76549 -13014772.57047  22208008.071    22208019.035    22208010.546
 -18986070.03149 -14772359.95847  19923465.776    19923476.473    19923467.931
   9908694.16449   7725746.46246  22303237.030    22303248.599    22303239.779
 98  4 15 17 12 29.9980000  0  7G19G 2G15G27G26G 7G13
  11854071.11449   9234639.91946  23154739.437    23154753.449    23154742.064
  -5520238.26849  -4293449.60347  20731492.114    20731502.228    20731494.064
 -13103762.23949 -10199171.89746  22981520.505    22981533.215    22981522.457
  -1633705.82349  -1262878.02347  20335337.571    20335348.112    20335339.654
 -16760895.59949 -13035498.16347  22202946.781    22202957.628    22202949.152
 -19023813.97249 -14801770.81247  19916283.297    19916294.014    19916285.487
   9995321.51149   7793248.17246  22319721.642    22319733.374    22319724.489
 98  4 15 17 12 59.9980000  0  7G19G 2G15G27G26G 7G13
  11938926.54249   9300760.84046  23170886.837    23170901.144    23170889.724
  -5524624.37549  -4296867.37147  20730657.529    20730667.592    20730659.471
 -13110442.35049 -10204377.20846  22980249.976    22980262.083    22980251.382
  -1590788.33749  -1229435.87347  20343504.458    20343515.104    20343506.621
 -16786979.99249 -13055823.67747  22197982.912    22197993.913    22197985.455
 -19061070.14649 -14830801.58147  19909193.684    19909204.368    19909195.864
  10082112.40449   7860877.30946  22336237.603    22336249.259    22336240.366
 98  4 15 17 13 29.9980000  0  7G19G 2G15G27G26G 7G13
  12023991.67149   9367045.16346  23187074.294    23187088.653    23187077.210
  -5528909.93649  -4300206.79647  20729842.016    20729852.102    20729843.951
 -13116547.88149 -10209134.79946  22979088.027    22979100.209    22979089.499
  -1547410.26249  -1195634.82547  20351759.110    20351769.716    20351761.238
 -16812545.82249 -13075745.12147  22193117.983    22193128.890    22193120.425
 -19097841.73349 -14859454.75647  19902196.233    19902206.923    19902198.463
  10169072.84249   7928638.56646  22352785.878    22352797.409    22352788.497
 98  4 15 17 13 59.9980000  0  7G19G 2G15G27G26G 7G13
  12109248.59849   9433478.95246  23203298.220    23203312.695    23203301.201
  -5533058.42549  -4303439.41247  20729052.582    20729062.685    20729054.510
 -13122084.46349 -10213449.05646  22978034.034    22978046.692    22978035.937
  -1503591.94749  -1161490.73047  20360097.534    20360108.134    20360099.644
 -16837585.47549 -13095256.55147  22188352.846    22188364.018    22188355.517
 -19134146.03049 -14887743.80747  19895287.811    19895298.387    19895289.940
  10256181.35349   7996515.19246  22369362.390    22369373.736    22369364.844
 98  4 15 17 14 29.9980000  0  7G19G 2G15G27G26G 7G13
  12194692.51849   9500058.44046  23219558.129    23219572.349    23219560.763
  -5537022.71449  -4306528.48947  20728298.247    20728308.364    20728300.159
 -13127044.00149 -10217313.65846  22977090.513    22977102.982    22977092.187
  -1459323.12449  -1126995.59247  20368521.618    20368532.252    20368523.775
 -16862061.74149 -13114328.97747  22183695.294    22183706.367    22183697.850
 -19169973.21649 -14915661.08447  19888470.141    19888480.708    19888472.271
  10343444.85049   8064512.59246  22385968.281    22385979.584    22385970.619
 98  4 15 17 14 59.9980000  0  7G19G 2G15G27G26G 7G13
  12280335.22049   9566792.81046  23235855.543    23235869.904    23235858.197
  -5540796.68949  -4309469.27147  20727580.136    20727590.196    20727582.023
 -13131424.67849 -10220727.20346  22976256.626    22976269.435    22976258.620
  -1414598.31449  -1092145.13847  20377032.502    20377043.144    20377034.642
 -16885967.12449 -13132956.55947  22179146.345    22179157.356    22179148.836
 -19205337.06349 -14943217.31747  19881740.657    19881751.216    19881742.774
  10430868.30649   8132634.64546  22402604.551    22402615.844    22402606.806
 98  4 15 17 15 29.9980000  0  7G19G 2G15G27G26G 7G13
  12366173.78149   9633679.80646  23252190.331    23252204.597    23252192.901
  -5544387.46649  -4312267.30247  20726896.750    20726906.888    20726898.723
 -13135231.17549 -10223693.33546  22975532.455    22975545.073    22975534.234
  -1369426.59849  -1056946.44547  20385628.393    20385639.096    20385630.520
 -16909305.82949 -13151142.58147  22174705.238    22174716.130    22174707.656
 -19240241.83249 -14970415.83247  19875098.511    19875109.042    19875100.598
  10518440.45749   8200872.55046  22419268.962    22419280.432    22419271.269
 98  4 15 17 15 59.9980000  0  7G19G 2G15G27G26G 7G13
  12452219.03949   9700727.86946  23268564.476    23268578.680    23268566.973
  -5547767.41549  -4314901.04947  20726253.594    20726263.720    20726255.524
 -13138448.28749 -10226200.20846  22974920.143    22974932.992    22974921.989
  -1323779.44249  -1021377.27547  20394314.773    20394325.521    20394316.882
 -16932049.93049 -13168865.27447  22170377.125    22170388.091    22170379.632
 -19274660.66549 -14997235.69547  19868548.790    19868559.381    19868550.877
  10606170.14349   8269233.20846  22435963.302    22435974.983    22435965.779
 98  4 15 17 16 29.9980000  0  7G19G 2G15G27G26G 7G13
  12538463.21049   9767930.90846  23284976.205    23284990.452    23284978.749
  -5550980.59849  -4317404.84847  20725642.178    20725652.298    20725644.117
 -13141095.31949 -10228262.86546  22974416.450    22974429.315    22974418.289
  -1277673.71349   -985450.77647  20403088.334    20403099.223    20403090.546
 -16954226.71849 -13186145.90447  22166157.097    22166167.967    22166159.538
 -19308611.15549 -15023690.61547  19862088.140    19862098.861    19862090.327
  10694034.39249   8337698.71846  22452683.458    22452695.171    22452685.873
 98  4 15 17 16 59.9980000  0  7G19G 2G15G27G26G 7G13
  12624911.00549   9835292.63346  23301426.830    23301441.066    23301429.388
  -5554048.66849  -4319795.57147  20725058.350    20725068.481    20725060.310
 -13143167.00349 -10229877.20346  22974022.118    22974035.027    22974024.085
  -1231112.70549   -949169.51247  20411948.646    20411959.525    20411950.839
 -16975851.90449 -13202996.72147  22162041.993    22162052.809    22162044.421
 -19342087.20549 -15049775.83947  19855717.986    19855728.625    19855720.096
  10782026.81449   8406264.09546  22469427.920    22469439.788    22469430.389
 98  4 15 17 17 29.9980000  0  7G19G 2G15G27G26G 7G13
  12711554.13149   9902806.53646  23317914.577    23317928.871    23317917.174
  -5556961.90549  -4322065.64647  20724504.062    20724514.129    20724505.942
 -13144658.98549 -10231039.82246  22973738.319    22973751.116    22973740.184
  -1184104.78949   -912540.00847  20420893.975    20420904.871    20420896.165
 -16996934.06249 -13219424.39447  22158030.177    22158041.009    22158032.608
 -19375080.48249 -15075484.87347  19849439.533    19849450.240    19849441.710
  10870146.86649   8474928.93246  22486196.599    22486208.656    22486199.125
